EW3374 Weather Reports


time (UTC)temp
C
wind
direction
speed
KPH
gust
KPH
rain 1hr
cm
rain 24hr
cm
rain mn
cm
humidity
%
barometer
mb
20260507232728 14 151 1.6 6.4 0.00 0.61 0.00 84 1014.7
20260507232639 14 151 1.6 6.4 0.00 0.61 0.00 84 1014.7
20260507232534 14 151 0.0 6.4 0.00 0.61 0.00 84 1014.6
20260507232429 14 151 1.6 6.4 0.00 0.61 0.00 84 1014.6
20260507232340 14 151 1.6 6.4 0.00 0.61 0.00 84 1014.7
20260507232234 14 151 3.2 6.4 0.00 0.61 0.00 84 1014.6
20260507232142 14 151 3.2 6.4 0.00 0.61 0.00 84 1014.6
20260507232023 14 152 1.6 8.0 0.00 0.61 0.00 83 1014.6
20260507231950 14 152 1.6 8.0 0.00 0.61 0.00 83 1014.6
20260507231825 14 152 1.6 11.3 0.00 0.61 0.00 83 1014.6
20260507231718 14 152 3.2 11.3 0.00 0.61 0.00 83 1014.6
20260507231647 14 152 3.2 11.3 0.00 0.61 0.00 83 1014.6
20260507231521 14 153 4.8 11.3 0.00 0.61 0.00 83 1014.6
20260507231450 14 153 4.8 11.3 0.00 0.61 0.00 83 1014.6
20260507231330 14 155 4.8 11.3 0.00 0.61 0.00 83 1014.6
20260507231258 14 155 6.4 11.3 0.00 0.61 0.00 83 1014.6
20260507231204 14 158 6.4 11.3 0.00 0.61 0.00 83 1014.6
20260507231036 14 166 8.0 11.3 0.00 0.61 0.00 83 1014.6
20260507231003 14 155 8.0 11.3 0.00 0.61 0.00 83 1014.6
20260507230820 14 141 8.0 9.7 0.00 0.61 0.00 83 1014.5
20260507230749 14 144 6.4 9.7 0.00 0.61 0.00 83 1014.5
20260507230627 15 140 6.4 9.7 0.00 0.61 0.00 83 1014.6
20260507230550 14 145 6.4 9.7 0.00 0.61 0.00 83 1014.6
20260507230424 15 138 6.4 9.7 0.00 0.61 0.00 83 1014.6
20260507230342 15 143 8.0 9.7 0.00 0.61 0.00 83 1014.6
20260507230229 15 144 8.0 9.7 0.00 0.61 0.00 83 1014.6
20260507230127 15 143 8.0 9.7 0.00 0.61 0.00 83 1014.6
20260507230054 15 147 8.0 9.7 0.00 0.61 0.00 83 1014.6
20260507230022 15 134 6.4 9.7 0.00 0.61 0.00 83 1014.6
20260507225902 15 138 4.8 9.7 0.00 0.61 0.00 83 1014.7
20260507225739 15 140 4.8 9.7 0.00 0.61 0.00 83 1014.7
20260507225632 15 140 6.4 9.7 0.00 0.61 0.00 82 1014.7
20260507225520 15 146 8.0 11.3 0.00 0.61 0.00 82 1014.7
20260507225440 15 136 8.0 11.3 0.00 0.61 0.00 82 1014.7
20260507225327 15 136 8.0 11.3 0.00 0.61 0.00 82 1014.7
20260507225222 15 138 6.4 11.3 0.00 0.61 0.00 82 1014.6
20260507225151 15 143 6.4 11.3 0.00 0.61 0.00 82 1014.6
20260507225029 15 140 6.4 11.3 0.00 0.61 0.00 82 1014.6
20260507224937 15 145 6.4 11.3 0.00 0.61 0.00 81 1014.6
20260507224832 15 146 8.0 11.3 0.00 0.61 0.00 82 1014.6
20260507224740 15 150 8.0 11.3 0.00 0.61 0.00 81 1014.6
20260507224634 15 155 9.7 11.3 0.00 0.61 0.00 81 1014.6
20260507224539 15 154 9.7 11.3 0.00 0.61 0.00 81 1014.6
20260507224415 15 152 8.0 11.3 0.00 0.61 0.00 81 1014.6
20260507224334 15 155 8.0 11.3 0.00 0.61 0.00 81 1014.6
20260507224243 15 153 6.4 9.7 0.00 0.61 0.00 81 1014.6
20260507224137 15 164 6.4 9.7 0.00 0.61 0.00 81 1014.6
20260507224042 15 149 6.4 9.7 0.00 0.61 0.00 81 1014.6
20260507223919 15 147 6.4 9.7 0.00 0.61 0.00 81 1014.6
20260507223818 15 153 6.4 9.7 0.00 0.61 0.00 81 1014.6
20260507223747 15 148 8.0 9.7 0.00 0.61 0.00 81 1014.6
20260507223653 15 146 8.0 9.7 0.00 0.61 0.00 81 1014.6
20260507223545 15 159 8.0 9.7 0.00 0.61 0.00 81 1014.6
20260507223432 15 152 6.4 9.7 0.00 0.61 0.00 81 1014.6
20260507223400 15 150 6.4 9.7 0.00 0.61 0.00 81 1014.6
20260507223234 16 159 6.4 9.7 0.00 0.61 0.00 81 1014.6
20260507223142 16 155 6.4 9.7 0.00 0.61 0.00 81 1014.6
20260507223037 16 148 6.4 9.7 0.00 0.61 0.00 81 1014.6
20260507222947 16 159 4.8 9.7 0.00 0.61 0.00 81 1014.6
20260507222822 16 155 4.8 9.7 0.00 0.61 0.00 81 1014.6
20260507222751 16 155 6.4 9.7 0.00 0.61 0.00 81 1014.6
20260507222722 16 156 6.4 9.7 0.00 0.61 0.00 81 1014.6
20260507222527 16 149 6.4 9.7 0.00 0.61 0.00 81 1014.6
20260507222435 16 139 6.4 8.0 0.00 0.61 0.00 81 1014.6
20260507222330 16 138 4.8 8.0 0.00 0.61 0.00 81 1014.6
20260507222238 16 137 4.8 8.0 0.00 0.61 0.00 81 1014.6
20260507222138 16 135 4.8 8.0 0.00 0.61 0.00 81 1014.6
20260507222030 16 135 3.2 8.0 0.00 0.61 0.00 81 1014.6
20260507221938 16 133 3.2 6.4 0.00 0.61 0.00 81 1014.6
20260507221907 16 132 1.6 8.0 0.00 0.61 0.00 81 1014.6
20260507221721 16 132 3.2 8.0 0.00 0.61 0.00 81 1014.6
20260507221636 16 132 3.2 8.0 0.00 0.61 0.00 81 1014.6
20260507221528 16 132 1.6 8.0 0.00 0.61 0.00 81 1014.6
20260507221424 16 132 3.2 8.0 0.00 0.61 0.00 81 1014.6
20260507221321 16 131 3.2 8.0 0.00 0.61 0.00 81 1014.6
20260507221231 16 131 4.8 8.0 0.00 0.61 0.00 81 1014.6
20260507221128 16 131 3.2 8.0 0.00 0.61 0.00 81 1014.6
20260507221036 16 131 3.2 4.8 0.00 0.61 0.00 81 1014.6
20260507220931 16 131 1.6 3.2 0.00 0.61 0.00 81 1014.6
20260507220843 16 131 1.6 3.2 0.00 0.61 0.00 81 1014.7
20260507220720 16 130 1.6 3.2 0.00 0.61 0.00 81 1014.6
20260507220634 16 131 1.6 3.2 0.00 0.61 0.00 81 1014.6
20260507220520 16 131 1.6 3.2 0.00 0.61 0.00 81 1014.6
20260507220447 16 131 1.6 3.2 0.00 0.61 0.00 81 1014.6
20260507220321 16 131 1.6 6.4 0.00 0.61 0.00 81 1014.6
20260507220219 16 131 1.6 6.4 0.00 0.61 0.00 81 1014.6
20260507220151 16 131 1.6 6.4 0.00 0.61 0.00 81 1014.6
20260507220041 16 131 1.6 6.4 0.00 0.61 0.00 81 1014.6
20260507215945 16 131 1.6 6.4 0.00 0.61 0.15 81 1014.6
20260507215822 16 131 3.2 6.4 0.00 0.61 0.15 81 1014.6
20260507215752 16 131 3.2 4.8 0.00 0.61 0.15 81 1014.6
20260507215626 16 137 3.2 4.8 0.00 0.61 0.15 81 1014.6
20260507215530 16 137 3.2 6.4 0.00 0.61 0.15 81 1014.6
20260507215436 16 138 3.2 4.8 0.00 0.61 0.15 81 1014.6
20260507215344 16 138 3.2 4.8 0.00 0.61 0.15 81 1014.5
20260507215244 16 138 1.6 6.4 0.00 0.61 0.15 81 1014.5
20260507215150 16 138 1.6 6.4 0.00 0.61 0.15 81 1014.6
20260507215021 16 138 1.6 6.4 0.00 0.61 0.15 81 1014.6
20260507214915 16 138 1.6 6.4 0.00 0.61 0.15 81 1014.5
20260507214847 16 138 3.2 4.8 0.00 0.61 0.15 81 1014.5
20260507214737 16 138 3.2 4.8 0.00 0.61 0.15 81 1014.5
20260507214630 16 138 3.2 4.8 0.00 0.61 0.15 81 1014.5
20260507214521 16 138 3.2 6.4 0.00 0.61 0.15 80 1014.5
20260507214431 16 140 3.2 6.4 0.00 0.61 0.15 80 1014.5
20260507214337 16 140 3.2 6.4 0.00 0.61 0.15 80 1014.5
20260507214231 16 141 3.2 6.4 0.00 0.61 0.15 80 1014.5
20260507214123 16 142 3.2 4.8 0.00 0.61 0.15 80 1014.6
20260507214033 16 143 3.2 6.4 0.00 0.61 0.15 80 1014.6
20260507213929 16 144 3.2 8.0 0.00 0.61 0.15 80 1014.5
20260507213836 16 144 3.2 8.0 0.00 0.61 0.15 80 1014.5
20260507213734 16 147 1.6 8.0 0.00 0.61 0.15 79 1014.5
20260507213641 16 148 1.6 8.0 0.00 0.61 0.15 79 1014.5
20260507213534 16 148 3.2 8.0 0.00 0.61 0.15 79 1014.5
20260507213440 16 148 3.2 8.0 0.00 0.61 0.15 79 1014.5
20260507213320 16 147 3.2 8.0 0.00 0.61 0.15 79 1014.6
20260507213232 16 146 4.8 8.0 0.00 0.61 0.15 79 1014.6
20260507213126 16 145 4.8 8.0 0.00 0.61 0.15 79 1014.6
20260507213050 16 143 3.2 6.4 0.00 0.61 0.15 79 1014.6
20260507212957 16 142 3.2 4.8 0.00 0.61 0.15 79 1014.5
20260507212832 16 142 3.2 6.4 0.00 0.61 0.15 79 1014.5
20260507212743 16 142 3.2 4.8 0.00 0.61 0.15 78 1014.5
20260507212635 16 141 3.2 6.4 0.00 0.61 0.15 78 1014.5
20260507212541 16 141 3.2 4.8 0.00 0.61 0.15 78 1014.5
20260507212418 16 140 3.2 6.4 0.00 0.61 0.15 78 1014.6
20260507212327 16 140 1.6 4.8 0.00 0.61 0.15 78 1014.6
20260507212240 16 140 1.6 6.4 0.00 0.61 0.15 78 1014.6
20260507212129 16 140 1.6 6.4 0.00 0.61 0.15 78 1014.6
20260507212021 16 140 1.6 6.4 0.00 0.61 0.15 78 1014.6
20260507211928 16 140 3.2 6.4 0.00 0.61 0.15 78 1014.6
20260507211826 16 140 1.6 6.4 0.00 0.61 0.15 78 1014.5
20260507211733 16 140 1.6 6.4 0.00 0.61 0.15 78 1014.5
20260507211627 16 140 3.2 4.8 0.00 0.61 0.15 78 1014.5
20260507211530 16 140 3.2 4.8 0.00 0.61 0.15 78 1014.5
20260507211458 16 140 3.2 6.4 0.00 0.61 0.15 78 1014.5
20260507211334 16 141 1.6 8.0 0.00 0.61 0.15 78 1014.4
20260507211232 17 142 1.6 8.0 0.00 0.61 0.15 78 1014.4
20260507211123 17 142 1.6 8.0 0.00 0.61 0.15 78 1014.4
20260507211040 17 142 3.2 8.0 0.00 0.61 0.15 78 1014.4
20260507210927 17 143 3.2 8.0 0.00 0.61 0.15 78 1014.4
20260507210820 17 143 1.6 8.0 0.00 0.61 0.15 78 1014.5
20260507210728 17 143 1.6 8.0 0.00 0.61 0.15 78 1014.5
20260507210643 17 143 3.2 8.0 0.00 0.61 0.15 78 1014.5
20260507210547 17 143 4.8 8.0 0.00 0.61 0.15 78 1014.5
20260507210447 17 142 4.8 8.0 0.00 0.61 0.15 78 1014.5
20260507210334 17 141 6.4 8.0 0.00 0.61 0.15 77 1014.5
20260507210300 17 134 6.4 8.0 0.00 0.61 0.15 78 1014.4
20260507210152 17 107 4.8 8.0 0.00 0.61 0.15 77 1014.4
20260507210037 17 128 3.2 8.0 0.00 0.61 0.15 77 1014.4
20260507205931 17 134 4.8 8.0 0.00 0.61 0.15 77 1014.4
20260507205841 17 134 4.8 8.0 0.00 0.61 0.15 77 1014.4
20260507205747 17 126 4.8 8.0 0.00 0.61 0.15 77 1014.4
20260507205643 17 122 4.8 8.0 0.00 0.61 0.15 77 1014.4
20260507205531 17 122 6.4 8.0 0.00 0.61 0.15 77 1014.4
20260507205427 17 122 4.8 8.0 0.00 0.61 0.15 77 1014.5
20260507205320 17 129 3.2 6.4 0.00 0.61 0.15 77 1014.5
20260507205251 17 134 3.2 6.4 0.00 0.61 0.15 77 1014.5
20260507205218 17 136 3.2 4.8 0.00 0.61 0.15 77 1014.4
20260507205022 17 136 3.2 4.8 0.00 0.61 0.15 77 1014.6
20260507204930 17 137 3.2 6.4 0.00 0.61 0.15 77 1014.6
20260507204836 17 138 3.2 6.4 0.00 0.61 0.15 77 1014.6
20260507204737 17 140 3.2 4.8 0.00 0.61 0.15 77 1014.5
20260507204630 17 141 3.2 4.8 0.00 0.61 0.15 77 1014.5
20260507204558 17 142 1.6 6.4 0.00 0.61 0.15 77 1014.6
20260507204417 17 152 1.6 3.2 0.00 0.61 0.15 77 1014.6
20260507204348 17 152 1.6 3.2 0.00 0.61 0.15 77 1014.6
20260507204221 17 152 1.6 3.2 0.00 0.61 0.15 77 1014.6
20260507204133 17 152 1.6 3.2 0.00 0.61 0.15 77 1014.6
20260507204104 17 152 1.6 3.2 0.00 0.61 0.15 77 1014.6
20260507203940 17 152 1.6 3.2 0.00 0.61 0.15 77 1014.6
20260507203907 17 152 1.6 3.2 0.00 0.61 0.15 77 1014.6
20260507203814 17 152 1.6 3.2 0.00 0.61 0.15 77 1014.6
20260507203626 17 152 1.6 3.2 0.00 0.61 0.15 77 1014.6
20260507203519 17 152 0.0 3.2 0.00 0.61 0.15 77 1014.7
20260507203427 17 152 0.0 1.6 0.00 0.61 0.15 77 1014.7
20260507203323 17 152 0.0 1.6 0.00 0.61 0.15 77 1014.7
20260507203231 17 152 0.0 1.6 0.00 0.61 0.15 77 1014.7
20260507203127 17 152 0.0 1.6 0.00 0.61 0.15 77 1014.6
20260507203024 17 152 0.0 1.6 0.00 0.61 0.15 77 1014.6
20260507202932 17 152 0.0 1.6 0.00 0.61 0.15 77 1014.6
20260507202830 17 152 0.0 1.6 0.00 0.61 0.15 77 1014.6
20260507202737 17 152 0.0 1.6 0.00 0.61 0.15 76 1014.7
20260507202655 17 152 0.0 1.6 0.00 0.61 0.15 77 1014.6
20260507202542 17 152 0.0 1.6 0.00 0.61 0.15 77 1014.6
20260507202503 17 152 0.0 1.6 0.00 0.61 0.15 77 1014.6
20260507202317 17 152 0.0 1.6 0.00 0.61 0.15 77 1014.6
20260507202228 17 152 0.0 1.6 0.00 0.61 0.15 77 1014.6
20260507202120 17 152 0.0 1.6 0.00 0.61 0.15 77 1014.6
20260507202020 17 152 0.0 3.2 0.00 0.61 0.15 77 1014.6
20260507201933 17 152 0.0 3.2 0.00 0.61 0.15 77 1014.6
20260507201839 17 152 0.0 3.2 0.00 0.61 0.15 77 1014.6
20260507201757 17 152 0.0 3.2 0.00 0.61 0.15 77 1014.6
20260507201643 17 152 0.0 3.2 0.00 0.61 0.15 77 1014.6
20260507201535 17 152 0.0 3.2 0.00 0.61 0.15 77 1014.6
20260507201421 17 152 1.6 3.2 0.00 0.61 0.15 77 1014.6
20260507201321 17 152 1.6 3.2 0.00 0.61 0.15 77 1014.6
20260507201252 17 152 1.6 3.2 0.00 0.61 0.15 76 1014.6
20260507201130 17 152 1.6 3.2 0.00 0.61 0.15 76 1014.6
20260507201028 17 152 1.6 3.2 0.00 0.61 0.15 76 1014.5
20260507200939 17 152 1.6 3.2 0.00 0.61 0.15 76 1014.5
20260507200833 17 152 1.6 1.6 0.00 0.61 0.15 76 1014.5
20260507200744 17 152 0.0 1.6 0.00 0.61 0.15 76 1014.5
20260507200621 17 152 0.0 1.6 0.00 0.61 0.15 76 1014.5
20260507200531 17 152 0.0 1.6 0.00 0.61 0.15 76 1014.5
20260507200426 17 152 0.0 1.6 0.00 0.61 0.15 76 1014.5
20260507200319 17 152 0.0 3.2 0.00 0.61 0.15 76 1014.4
20260507200247 17 152 0.0 3.2 0.00 0.61 0.15 76 1014.4
20260507200136 17 152 0.0 3.2 0.00 0.61 0.15 76 1014.4
20260507200031 17 152 0.0 3.2 0.00 0.61 0.15 76 1014.4
20260507195927 17 152 0.0 3.2 0.00 0.61 0.15 76 1014.5
20260507195841 17 152 0.0 3.2 0.00 0.61 0.15 76 1014.5
20260507195728 17 152 0.0 3.2 0.00 0.61 0.15 76 1014.5
20260507195625 17 152 1.6 3.2 0.00 0.61 0.15 76 1014.5
20260507195532 17 152 1.6 3.2 0.00 0.61 0.15 76 1014.5
20260507195429 17 152 1.6 3.2 0.00 0.61 0.15 76 1014.5
20260507195323 17 152 1.6 3.2 0.00 0.61 0.15 76 1014.5
20260507195233 17 152 1.6 3.2 0.00 0.61 0.15 76 1014.5
20260507195131 17 152 1.6 3.2 0.00 0.61 0.15 76 1014.6
20260507195037 17 152 1.6 3.2 0.00 0.61 0.15 76 1014.5
20260507195004 17 152 0.0 3.2 0.00 0.61 0.15 76 1014.5
20260507194837 17 152 0.0 3.2 0.00 0.61 0.15 76 1014.6
20260507194744 17 152 0.0 3.2 0.00 0.61 0.15 76 1014.5
20260507194617 17 152 0.0 3.2 0.00 0.61 0.15 76 1014.6
20260507194550 17 152 0.0 3.2 0.00 0.61 0.15 76 1014.6
20260507194428 17 152 0.0 3.2 0.00 0.61 0.15 76 1014.5
20260507194345 17 152 1.6 3.2 0.00 0.61 0.15 76 1014.5
20260507194234 17 152 1.6 3.2 0.00 0.61 0.15 76 1014.5
20260507194132 17 152 0.0 3.2 0.00 0.61 0.15 76 1014.5
20260507194037 17 152 1.6 3.2 0.00 0.61 0.15 76 1014.5
20260507193934 17 152 1.6 3.2 0.00 0.61 0.15 76 1014.4
20260507193821 17 152 1.6 3.2 0.00 0.61 0.15 76 1014.4
20260507193721 17 152 1.6 3.2 0.00 0.61 0.15 75 1014.4
20260507193650 17 152 0.0 3.2 0.00 0.61 0.15 75 1014.4
20260507193527 17 152 0.0 3.2 0.00 0.61 0.15 75 1014.4
20260507193421 17 152 0.0 3.2 0.00 0.61 0.15 75 1014.3
20260507193329 17 152 0.0 3.2 0.00 0.61 0.15 75 1014.3
20260507193226 17 152 1.6 6.4 0.00 0.61 0.15 75 1014.4
20260507193133 17 152 0.0 6.4 0.00 0.61 0.15 75 1014.3
20260507193031 17 152 0.0 6.4 0.00 0.61 0.15 75 1014.4
20260507192927 17 152 1.6 6.4 0.00 0.61 0.15 75 1014.4
20260507192835 17 152 1.6 6.4 0.00 0.61 0.15 75 1014.3
20260507192735 17 153 1.6 8.0 0.00 0.61 0.15 75 1014.3
20260507192642 17 153 1.6 8.0 0.00 0.61 0.15 75 1014.3
20260507192539 17 153 3.2 8.0 0.00 0.61 0.15 75 1014.2
20260507192451 17 153 1.6 8.0 0.00 0.61 0.15 75 1014.3
20260507192324 17 159 1.6 8.0 0.00 0.61 0.15 75 1014.3
20260507192234 17 158 1.6 8.0 0.00 0.61 0.15 75 1014.3
20260507192128 17 159 3.2 8.0 0.00 0.61 0.15 75 1014.3
20260507192032 17 159 4.8 8.0 0.00 0.61 0.15 75 1014.3
20260507191929 17 159 4.8 8.0 0.00 0.61 0.15 75 1014.3
20260507191836 18 166 3.2 8.0 0.00 0.61 0.15 75 1014.3
20260507191735 17 157 3.2 8.0 0.00 0.61 0.15 75 1014.3
20260507191629 18 157 4.8 8.0 0.00 0.61 0.15 75 1014.2
20260507191557 18 166 1.6 8.0 0.00 0.61 0.15 75 1014.2
20260507191421 18 160 0.0 9.7 0.00 0.61 0.15 75 1014.2
20260507191321 18 160 3.2 12.9 0.00 0.61 0.15 75 1014.2
20260507191218 18 160 4.8 12.9 0.00 0.61 0.15 75 1014.2
20260507191127 18 163 4.8 12.9 0.00 0.61 0.15 75 1014.2
20260507191021 18 150 3.2 12.9 0.00 0.61 0.15 74 1014.2
20260507190933 18 125 3.2 12.9 0.00 0.61 0.15 74 1014.2
20260507190828 18 121 4.8 12.9 0.00 0.61 0.15 74 1014.2
20260507190737 18 112 6.4 12.9 0.00 0.61 0.15 74 1014.1
20260507190631 18 92 8.0 12.9 0.00 0.61 0.15 74 1014.1
20260507190536 18 126 6.4 12.9 0.00 0.61 0.15 74 1014.1
20260507190429 18 115 6.4 11.3 0.00 0.61 0.15 74 1014.1
20260507190400 18 135 6.4 14.5 0.00 0.61 0.15 74 1014.1
20260507190218 18 132 6.4 14.5 0.00 0.61 0.15 74 1014.1
20260507190147 18 117 6.4 14.5 0.00 0.61 0.15 74 1014.1
20260507190018 18 115 6.4 14.5 0.00 0.61 0.15 74 1014.0
20260507185919 18 128 4.8 14.5 0.00 0.61 0.15 74 1014.0
20260507185847 18 133 6.4 14.5 0.00 0.61 0.15 74 1014.0
20260507185719 18 126 4.8 14.5 0.00 0.61 0.15 74 1014.0
20260507185653 18 140 6.4 14.5 0.00 0.61 0.15 74 1014.0
20260507185535 18 137 8.0 14.5 0.00 0.61 0.15 74 1014.0
20260507185433 18 108 8.0 12.9 0.00 0.61 0.15 74 1014.0
20260507185329 18 132 8.0 12.9 0.00 0.61 0.15 74 1014.0
20260507185235 18 144 6.4 12.9 0.00 0.61 0.15 74 1014.0
20260507185143 18 144 6.4 12.9 0.00 0.61 0.15 73 1014.0
20260507185100 18 130 6.4 12.9 0.00 0.61 0.15 73 1014.0
20260507184931 18 126 6.4 12.9 0.00 0.61 0.15 73 1014.0
20260507184848 18 115 6.4 12.9 0.00 0.61 0.15 73 1014.0
20260507184735 18 107 4.8 12.9 0.00 0.61 0.15 73 1014.0
20260507184635 18 111 1.6 12.9 0.00 0.61 0.15 73 1014.0
20260507184539 18 118 3.2 12.9 0.00 0.61 0.15 73 1014.0
20260507184435 18 118 8.0 12.9 0.00 0.61 0.15 73 1014.0
20260507184343 18 144 9.7 12.9 0.00 0.61 0.15 73 1014.0
20260507184220 18 96 9.7 12.9 0.00 0.61 0.15 73 1014.0
20260507184149 18 149 9.7 12.9 0.00 0.61 0.15 73 1014.0
20260507184027 18 145 6.4 11.3 0.00 0.61 0.15 73 1014.1
20260507183957 18 122 4.8 11.3 0.00 0.61 0.15 73 1014.0
20260507183831 18 132 4.8 11.3 0.00 0.61 0.15 73 1014.0
20260507183742 18 157 4.8 11.3 0.00 0.61 0.15 73 1014.0
20260507183709 18 138 4.8 11.3 0.00 0.61 0.15 73 1014.0
20260507183542 18 144 6.4 11.3 0.00 0.61 0.15 73 1014.0
20260507183437 18 144 6.4 11.3 0.00 0.61 0.15 73 1014.0
20260507183331 18 157 6.4 11.3 0.00 0.61 0.15 73 1014.0
20260507183301 18 140 4.8 11.3 0.00 0.61 0.15 72 1014.0
20260507183133 18 127 6.4 11.3 0.00 0.61 0.15 72 1013.9
20260507183100 18 82 4.8 11.3 0.00 0.61 0.15 72 1013.9
20260507182939 18 110 4.8 11.3 0.00 0.61 0.15 72 1013.9
20260507182841 18 143 4.8 16.1 0.00 0.61 0.15 72 1013.9
20260507182749 18 158 3.2 16.1 0.00 0.61 0.15 72 1013.9
20260507182655 18 138 4.8 16.1 0.00 0.61 0.15 72 1013.9
20260507182622 18 139 6.4 16.1 0.00 0.61 0.15 72 1013.9
20260507182431 18 115 3.2 20.9 0.00 0.61 0.15 72 1013.9
20260507182359 18 141 6.4 20.9 0.00 0.61 0.15 72 1013.8
20260507182245 18 149 8.0 20.9 0.00 0.61 0.15 72 1013.8
20260507182143 18 148 9.7 20.9 0.00 0.61 0.15 72 1013.9
20260507182047 18 135 9.7 20.9 0.00 0.61 0.15 72 1013.8
20260507181942 18 125 8.0 20.9 0.00 0.61 0.15 72 1013.8
20260507181828 18 143 8.0 20.9 0.00 0.61 0.15 72 1013.8
20260507181720 18 117 9.7 20.9 0.00 0.61 0.15 72 1013.8
20260507181633 18 144 9.7 20.9 0.00 0.61 0.15 72 1013.8
20260507181521 18 121 9.7 19.3 0.00 0.61 0.15 72 1013.8
20260507181450 18 123 11.3 19.3 0.00 0.61 0.15 72 1013.8
20260507181338 18 121 11.3 19.3 0.00 0.61 0.15 72 1013.8
20260507181235 18 152 9.7 19.3 0.00 0.61 0.15 73 1013.8
20260507181123 18 146 9.7 14.5 0.00 0.61 0.15 73 1013.8
20260507181040 18 138 9.7 14.5 0.00 0.61 0.15 73 1013.8
20260507181006 18 138 8.0 14.5 0.00 0.61 0.15 73 1013.8
20260507180934 18 139 6.4 17.7 0.00 0.61 0.15 73 1013.8
20260507180720 18 126 6.4 17.7 0.00 0.61 0.15 73 1013.8
20260507180650 18 132 6.4 17.7 0.00 0.61 0.15 73 1013.8
20260507180536 18 120 4.8 17.7 0.00 0.61 0.15 73 1013.8
20260507180433 18 136 4.8 17.7 0.00 0.61 0.15 73 1013.8
20260507180328 18 128 6.4 19.3 0.00 0.61 0.15 73 1013.7
20260507180254 18 115 9.7 19.3 0.00 0.61 0.15 73 1013.7
20260507180141 18 119 11.3 19.3 0.00 0.61 0.15 73 1013.7
20260507180039 18 134 8.0 19.3 0.00 0.61 0.15 73 1013.7
20260507175947 18 123 8.0 19.3 0.00 0.61 0.15 73 1013.7
20260507175902 18 101 8.0 19.3 0.00 0.61 0.15 73 1013.6
20260507175827 18 134 8.0 19.3 0.00 0.61 0.15 73 1013.6
20260507175644 18 173 11.3 19.3 0.00 0.61 0.15 72 1013.6
20260507175520 18 120 8.0 14.5 0.00 0.61 0.15 72 1013.6
20260507175438 18 96 6.4 12.9 0.00 0.61 0.15 72 1013.6
20260507175329 19 106 6.4 14.5 0.00 0.61 0.15 72 1013.6
20260507175221 19 146 9.7 16.1 0.00 0.61 0.15 72 1013.6
20260507175150 19 124 8.0 22.5 0.00 0.61 0.15 72 1013.6
20260507175054 19 137 6.4 22.5 0.00 0.61 0.15 72 1013.5
20260507174927 19 134 3.2 22.5 0.00 0.61 0.15 72 1013.6
20260507174854 19 113 4.8 22.5 0.00 0.61 0.15 71 1013.6
20260507174801 19 111 6.4 22.5 0.00 0.61 0.15 71 1013.5
20260507174707 19 117 9.7 22.5 0.00 0.61 0.15 71 1013.5
20260507174615 19 161 9.7 22.5 0.00 0.61 0.15 71 1013.5
20260507174421 19 126 14.5 22.5 0.00 0.61 0.15 71 1013.5
20260507174349 19 117 12.9 22.5 0.00 0.61 0.15 71 1013.5
20260507174226 19 107 11.3 17.7 0.00 0.61 0.15 71 1013.4
20260507174137 19 134 8.0 12.9 0.00 0.61 0.15 71 1013.4
20260507174028 19 101 6.4 12.9 0.00 0.61 0.15 71 1013.4
20260507173933 19 135 6.4 12.9 0.00 0.61 0.15 71 1013.4
20260507173830 19 111 6.4 12.9 0.00 0.61 0.15 71 1013.4
20260507173738 19 136 6.4 16.1 0.00 0.61 0.15 71 1013.4
20260507173632 19 104 9.7 16.1 0.00 0.61 0.15 71 1013.4
20260507173541 19 118 9.7 16.1 0.00 0.61 0.15 71 1013.3
20260507173432 19 115 6.4 16.1 0.00 0.61 0.15 71 1013.3
20260507173320 19 96 6.4 16.1 0.00 0.61 0.15 71 1013.3
20260507173219 19 116 8.0 16.1 0.00 0.61 0.15 71 1013.4
20260507173149 19 114 8.0 16.1 0.00 0.61 0.15 71 1013.4
20260507173021 19 106 9.7 16.1 0.00 0.61 0.15 71 1013.4
20260507172950 19 113 11.3 16.1 0.00 0.61 0.15 71 1013.4
20260507172828 19 126 11.3 16.1 0.00 0.61 0.15 71 1013.4
20260507172721 19 115 8.0 14.5 0.00 0.61 0.15 72 1013.4
20260507172653 19 146 6.4 14.5 0.00 0.61 0.15 72 1013.4
20260507172538 19 147 4.8 14.5 0.00 0.61 0.15 72 1013.4
20260507172502 19 151 6.4 14.5 0.00 0.61 0.15 72 1013.5
20260507172428 19 121 4.8 14.5 0.00 0.61 0.15 72 1013.5
20260507172235 19 93 6.4 14.5 0.00 0.61 0.15 72 1013.5
20260507172142 19 136 6.4 17.7 0.00 0.61 0.15 72 1013.5
20260507172109 19 117 6.4 17.7 0.00 0.61 0.15 72 1013.5
20260507171929 19 112 9.7 17.7 0.00 0.61 0.15 72 1013.5
20260507171839 19 88 9.7 17.7 0.00 0.61 0.15 72 1013.5
20260507171737 19 119 8.0 17.7 0.00 0.61 0.15 72 1013.6
20260507171634 19 78 9.7 17.7 0.00 0.61 0.15 72 1013.5
20260507171541 18 108 12.9 17.7 0.00 0.61 0.15 72 1013.5
20260507171449 19 104 14.5 17.7 0.00 0.61 0.15 72 1013.5
20260507171326 19 103 12.9 20.9 0.00 0.61 0.15 72 1013.5
20260507171222 19 83 11.3 20.9 0.00 0.61 0.15 72 1013.4
20260507171131 19 67 12.9 22.5 0.00 0.61 0.15 72 1013.4
20260507171048 19 119 11.3 22.5 0.00 0.61 0.15 73 1013.4
20260507170954 19 109 11.3 22.5 0.00 0.61 0.15 73 1013.4
20260507170840 19 103 12.9 22.5 0.00 0.61 0.15 73 1013.4
20260507170717 19 97 11.3 22.5 0.00 0.61 0.15 73 1013.3
20260507170636 19 102 11.3 22.5 0.00 0.61 0.15 73 1013.3
20260507170527 19 70 9.7 22.5 0.00 0.61 0.15 74 1013.3
20260507170421 19 123 12.9 22.5 0.00 0.61 0.15 74 1013.3
20260507170350 19 125 12.9 22.5 0.00 0.61 0.15 74 1013.3
20260507170224 19 107 6.4 16.1 0.00 0.61 0.15 75 1013.3
20260507170121 19 136 3.2 17.7 0.00 0.61 0.15 75 1013.4
20260507170031 19 103 4.8 22.5 0.00 0.61 0.15 75 1013.4
20260507165932 19 116 8.0 22.5 0.00 0.61 0.15 75 1013.4
20260507165840 18 119 8.0 22.5 0.00 0.61 0.15 75 1013.4
20260507165807 18 101 6.4 22.5 0.00 0.61 0.15 76 1013.4
20260507165641 18 101 8.0 22.5 0.00 0.61 0.15 75 1013.4
20260507165546 18 102 9.7 22.5 0.00 0.61 0.15 76 1013.5
20260507165422 18 90 11.3 22.5 0.00 0.61 0.15 76 1013.5
20260507165338 18 99 12.9 22.5 0.00 0.61 0.15 76 1013.5
20260507165228 18 103 11.3 22.5 0.00 0.61 0.15 76 1013.4
20260507165129 18 138 11.3 22.5 0.00 0.61 0.15 76 1013.5
20260507165021 18 132 11.3 22.5 0.00 0.61 0.15 76 1013.4
20260507164953 18 89 9.7 22.5 0.00 0.61 0.15 76 1013.4
20260507164841 18 123 9.7 22.5 0.00 0.61 0.15 76 1013.5
20260507164755 18 98 11.3 22.5 0.00 0.61 0.15 76 1013.4
20260507164642 18 107 12.9 22.5 0.00 0.61 0.15 76 1013.5
20260507164550 18 146 14.5 22.5 0.00 0.61 0.15 76 1013.5
20260507164430 18 102 16.1 24.1 0.00 0.61 0.15 77 1013.5
20260507164358 18 79 16.1 24.1 0.00 0.61 0.15 76 1013.5
20260507164234 18 94 14.5 24.1 0.00 0.61 0.15 77 1013.4
20260507164201 18 102 12.9 24.1 0.00 0.61 0.15 77 1013.5
20260507164038 18 115 11.3 24.1 0.00 0.61 0.15 77 1013.5
20260507163945 18 113 12.9 24.1 0.00 0.61 0.15 77 1013.5
20260507163823 18 102 14.5 24.1 0.00 0.61 0.15 77 1013.4
20260507163720 18 86 12.9 24.1 0.00 0.61 0.15 77 1013.5
20260507163629 19 153 9.7 24.1 0.00 0.61 0.15 79 1013.5
20260507163520 19 96 8.0 16.1 0.00 0.61 0.15 79 1013.4
20260507163448 19 83 6.4 16.1 0.00 0.61 0.15 79 1013.4
20260507163321 19 90 6.4 17.7 0.00 0.61 0.15 79 1013.4
20260507163250 19 129 8.0 17.7 0.00 0.61 0.15 79 1013.4
20260507163136 19 96 8.0 17.7 0.00 0.61 0.15 79 1013.4
20260507163049 19 108 9.7 17.7 0.00 0.61 0.15 79 1013.4
20260507162940 19 82 11.3 17.7 0.00 0.61 0.15 79 1013.4
20260507162837 19 92 11.3 17.7 0.00 0.61 0.15 79 1013.4
20260507162745 19 122 12.9 17.7 0.00 0.61 0.15 79 1013.4
20260507162622 19 117 11.3 17.7 0.00 0.61 0.15 79 1013.5
20260507162527 19 101 11.3 17.7 0.00 0.61 0.15 79 1013.5
20260507162420 19 101 9.7 17.7 0.00 0.61 0.15 79 1013.5
20260507162320 19 60 8.0 16.1 0.00 0.61 0.15 79 1013.5
20260507162249 19 59 8.0 16.1 0.00 0.61 0.15 79 1013.5
20260507162137 19 109 9.7 16.1 0.00 0.61 0.15 79 1013.5
20260507162035 18 72 11.3 17.7 0.00 0.61 0.15 79 1013.5
20260507161959 18 125 11.3 19.3 0.00 0.61 0.15 79 1013.5
20260507161836 18 65 9.7 19.3 0.00 0.61 0.15 79 1013.4
20260507161743 18 132 9.7 19.3 0.00 0.61 0.15 79 1013.5
20260507161622 18 98 9.7 19.3 0.00 0.61 0.15 79 1013.4
20260507161549 18 82 9.7 19.3 0.00 0.61 0.15 78 1013.4
20260507161422 19 94 11.3 19.3 0.00 0.61 0.15 78 1013.4
20260507161320 19 83 12.9 19.3 0.00 0.61 0.15 78 1013.4
20260507161231 19 71 12.9 19.3 0.00 0.61 0.15 78 1013.4
20260507161146 19 98 12.9 19.3 0.00 0.61 0.15 78 1013.4
20260507161030 19 86 12.9 19.3 0.00 0.61 0.15 77 1013.4
20260507160929 19 68 12.9 19.3 0.00 0.61 0.15 77 1013.5
20260507160836 19 86 11.3 19.3 0.00 0.61 0.15 77 1013.4
20260507160729 19 71 9.7 14.5 0.00 0.61 0.15 77 1013.4
20260507160622 19 95 9.7 14.5 0.00 0.61 0.15 77 1013.4
20260507160551 19 98 9.7 14.5 0.00 0.61 0.15 77 1013.4
20260507160509 19 71 9.7 14.5 0.00 0.61 0.15 76 1013.4
20260507160306 19 71 9.7 14.5 0.00 0.61 0.15 76 1013.5
20260507160233 19 53 9.7 14.5 0.00 0.61 0.15 76 1013.5
20260507160038 19 80 9.7 14.5 0.00 0.61 0.15 76 1013.5
20260507155931 19 84 9.7 14.5 0.00 0.61 0.15 76 1013.5
20260507155839 19 87 9.7 14.5 0.00 0.61 0.15 76 1013.5
20260507155736 20 59 9.7 14.5 0.00 0.61 0.15 76 1013.5
20260507155641 20 89 8.0 14.5 0.00 0.61 0.15 76 1013.5
20260507155539 20 69 8.0 14.5 0.00 0.61 0.15 76 1013.5
20260507155504 19 44 8.0 14.5 0.00 0.61 0.15 76 1013.5
20260507155431 20 71 8.0 14.5 0.00 0.61 0.15 76 1013.5
20260507155239 20 44 8.0 14.5 0.00 0.61 0.15 75 1013.6
20260507155146 20 87 8.0 14.5 0.00 0.61 0.15 75 1013.5
20260507155021 20 86 8.0 14.5 0.00 0.61 0.15 75 1013.5
20260507154950 20 65 8.0 14.5 0.00 0.61 0.15 75 1013.5
20260507154830 20 111 9.7 14.5 0.00 0.61 0.15 75 1013.6
20260507154727 20 31 9.7 16.1 0.00 0.61 0.15 75 1013.6
20260507154620 20 22 8.0 16.1 0.00 0.61 0.15 75 1013.5
20260507154531 20 59 8.0 16.1 0.00 0.61 0.15 75 1013.5
20260507154427 20 67 6.4 16.1 0.00 0.61 0.15 75 1013.5
20260507154335 20 62 8.0 16.1 0.00 0.61 0.15 75 1013.5
20260507154233 20 51 6.4 16.1 0.00 0.61 0.15 75 1013.5
20260507154122 20 85 6.4 16.1 0.00 0.61 0.15 75 1013.4
20260507154021 20 90 9.7 16.1 0.00 0.61 0.15 75 1013.4
20260507153933 20 63 9.7 16.1 0.00 0.61 0.15 74 1013.4
20260507153828 20 49 9.7 16.1 0.00 0.61 0.15 74 1013.4
20260507153755 20 67 8.0 16.1 0.00 0.61 0.15 74 1013.5
20260507153628 20 51 6.4 16.1 0.00 0.61 0.15 74 1013.5
20260507153553 20 78 8.0 16.1 0.00 0.61 0.15 74 1013.4
20260507153431 20 69 8.0 16.1 0.00 0.61 0.15 74 1013.4
20260507153339 20 100 8.0 16.1 0.00 0.61 0.15 74 1013.5
20260507153234 19 66 8.0 17.7 0.00 0.61 0.15 74 1013.4
20260507153142 19 65 8.0 19.3 0.00 0.61 0.15 74 1013.4
20260507153036 19 80 9.7 19.3 0.00 0.61 0.15 74 1013.4
20260507152944 19 71 8.0 19.3 0.00 0.61 0.15 74 1013.4
20260507152827 19 67 9.7 19.3 0.00 0.61 0.15 73 1013.4
20260507152755 19 67 9.7 19.3 0.00 0.61 0.15 73 1013.4
20260507152627 19 78 9.7 19.3 0.00 0.61 0.15 73 1013.5
20260507152531 19 90 9.7 19.3 0.00 0.61 0.15 73 1013.5
20260507152425 19 73 9.7 19.3 0.00 0.61 0.15 73 1013.5
20260507152327 19 105 11.3 19.3 0.00 0.61 0.15 73 1013.5
20260507152221 19 44 9.7 17.7 0.00 0.61 0.15 72 1013.5
20260507152130 19 360 9.7 17.7 0.00 0.61 0.15 72 1013.5
20260507152026 19 59 11.3 17.7 0.00 0.61 0.15 72 1013.5
20260507151935 19 70 11.3 17.7 0.00 0.61 0.15 71 1013.5
20260507151903 20 82 12.9 17.7 0.00 0.61 0.15 71 1013.5
20260507151759 20 43 12.9 17.7 0.00 0.61 0.15 71 1013.5
20260507151645 20 96 11.3 17.7 0.00 0.61 0.15 71 1013.5
20260507151536 20 82 9.7 17.7 0.00 0.61 0.15 71 1013.4
20260507151444 20 78 9.7 17.7 0.00 0.61 0.15 71 1013.5
20260507151322 20 112 9.7 17.7 0.00 0.61 0.15 71 1013.5
20260507151220 20 101 8.0 17.7 0.00 0.61 0.15 71 1013.4
20260507151127 20 92 8.0 17.7 0.00 0.61 0.15 70 1013.4
20260507151038 20 89 8.0 17.7 0.00 0.61 0.15 70 1013.4
20260507150927 20 64 9.7 17.7 0.00 0.61 0.15 70 1013.4
20260507150854 20 59 9.7 17.7 0.00 0.61 0.15 70 1013.4
20260507150729 20 45 9.7 17.7 0.00 0.61 0.15 70 1013.4
20260507150628 20 37 11.3 17.7 0.00 0.61 0.15 70 1013.5
20260507150519 20 46 9.7 17.7 0.00 0.61 0.15 69 1013.5
20260507150438 20 61 9.7 17.7 0.00 0.61 0.15 69 1013.5
20260507150344 20 96 11.3 17.7 0.00 0.61 0.15 69 1013.5
20260507150238 20 37 9.7 16.1 0.00 0.61 0.15 69 1013.5
20260507150145 20 61 8.0 17.7 0.00 0.61 0.15 68 1013.5
20260507150037 20 113 6.4 17.7 0.00 0.61 0.15 69 1013.5
20260507145949 20 57 8.0 17.7 0.00 0.61 0.15 68 1013.5
20260507145826 20 70 9.7 17.7 0.00 0.61 0.15 68 1013.5
20260507145721 20 69 9.7 17.7 0.00 0.61 0.15 68 1013.5
20260507145630 20 62 9.7 17.7 0.00 0.61 0.15 68 1013.5
20260507145540 20 90 11.3 17.7 0.00 0.61 0.15 68 1013.5
20260507145448 20 74 12.9 17.7 0.00 0.61 0.15 68 1013.5
20260507145334 20 42 11.3 17.7 0.00 0.61 0.15 68 1013.6
20260507145254 20 44 9.7 17.7 0.00 0.61 0.15 68 1013.5
20260507145143 20 51 9.7 17.7 0.00 0.61 0.15 68 1013.5
20260507145034 20 53 8.0 17.7 0.00 0.61 0.15 68 1013.6
20260507144942 20 107 9.7 17.7 0.00 0.61 0.15 68 1013.5
20260507144822 19 85 9.7 17.7 0.00 0.61 0.15 67 1013.5
20260507144718 19 38 8.0 17.7 0.00 0.61 0.15 67 1013.5
20260507144629 19 71 9.7 17.7 0.00 0.61 0.15 67 1013.5
20260507144527 19 63 9.7 17.7 0.00 0.61 0.15 67 1013.6
20260507144422 19 86 8.0 17.7 0.00 0.61 0.15 69 1013.6
20260507144330 19 55 9.7 17.7 0.00 0.61 0.15 69 1013.6
20260507144222 19 88 9.7 17.7 0.00 0.61 0.15 69 1013.6
20260507144131 19 91 9.7 17.7 0.00 0.61 0.15 69 1013.6
20260507144028 19 40 8.0 17.7 0.00 0.61 0.15 69 1013.5
20260507143956 19 68 8.0 19.3 0.00 0.61 0.15 69 1013.6
20260507143834 19 82 9.7 20.9 0.00 0.61 0.15 69 1013.5
20260507143741 19 35 11.3 20.9 0.00 0.61 0.15 69 1013.5
20260507143642 19 59 11.3 20.9 0.00 0.61 0.15 70 1013.5
20260507143547 18 65 11.3 20.9 0.00 0.61 0.15 69 1013.6
20260507143421 18 94 11.3 20.9 0.00 0.61 0.15 69 1013.6
20260507143350 18 42 11.3 20.9 0.00 0.61 0.15 69 1013.6
20260507143246 18 86 12.9 20.9 0.00 0.61 0.15 69 1013.6
20260507143215 18 88 16.1 20.9 0.00 0.61 0.15 68 1013.7
20260507143027 18 86 14.5 19.3 0.00 0.61 0.15 68 1013.6
20260507142921 18 103 12.9 19.3 0.00 0.61 0.15 68 1013.7
20260507142832 18 86 12.9 19.3 0.00 0.61 0.15 68 1013.7
20260507142727 19 91 12.9 19.3 0.00 0.61 0.15 68 1013.7
20260507142638 19 97 11.3 19.3 0.00 0.61 0.15 69 1013.7
20260507142543 19 62 12.9 19.3 0.00 0.61 0.15 69 1013.7
20260507142422 19 115 12.9 17.7 0.00 0.61 0.15 68 1013.7
20260507142318 19 92 11.3 17.7 0.00 0.61 0.15 68 1013.7
20260507142249 19 81 12.9 17.7 0.00 0.61 0.15 68 1013.7
20260507142123 19 68 12.9 17.7 0.00 0.61 0.15 67 1013.7
20260507142027 19 98 11.3 19.3 0.00 0.61 0.15 67 1013.7
20260507141955 19 105 9.7 19.3 0.00 0.61 0.15 67 1013.7
20260507141827 19 51 9.7 19.3 0.00 0.61 0.15 67 1013.7
20260507141737 19 57 11.3 19.3 0.00 0.61 0.15 67 1013.7
20260507141637 19 57 9.7 19.3 0.00 0.61 0.15 67 1013.7
20260507141528 19 68 8.0 19.3 0.00 0.61 0.15 67 1013.7
20260507141455 19 67 11.3 19.3 0.00 0.61 0.15 67 1013.6
20260507141341 19 42 14.5 19.3 0.00 0.61 0.15 67 1013.6
20260507141219 19 65 14.5 19.3 0.00 0.61 0.15 67 1013.7
20260507141134 19 98 11.3 16.1 0.00 0.61 0.15 67 1013.7
20260507141024 19 57 9.7 16.1 0.00 0.61 0.15 66 1013.7
20260507140922 19 86 9.7 16.1 0.00 0.61 0.15 66 1013.7
20260507140820 19 44 9.7 16.1 0.00 0.61 0.15 67 1013.7
20260507140730 19 37 9.7 17.7 0.00 0.61 0.15 66 1013.7
20260507140627 19 101 9.7 17.7 0.00 0.61 0.15 66 1013.7
20260507140531 19 86 9.7 19.3 0.00 0.61 0.15 66 1013.7
20260507140450 19 48 9.7 19.3 0.00 0.61 0.15 67 1013.7
20260507140330 18 35 9.7 19.3 0.00 0.61 0.15 67 1013.7
20260507140225 18 81 9.7 19.3 0.00 0.61 0.15 67 1013.7
20260507140133 18 85 9.7 19.3 0.00 0.61 0.15 67 1013.7
20260507140024 18 59 11.3 19.3 0.00 0.61 0.15 67 1013.7
20260507135935 18 92 11.3 19.3 0.00 0.61 0.15 67 1013.8
20260507135827 18 115 12.9 19.3 0.00 0.61 0.15 66 1013.8
20260507135721 18 80 14.5 19.3 0.00 0.61 0.15 66 1013.7
20260507135640 18 76 12.9 19.3 0.00 0.61 0.15 66 1013.7
20260507135545 18 83 14.5 19.3 0.00 0.61 0.15 67 1013.8
20260507135422 18 90 11.3 20.9 0.00 0.61 0.15 67 1013.8
20260507135319 18 105 9.7 20.9 0.00 0.61 0.15 68 1013.8
20260507135227 18 72 9.7 20.9 0.00 0.61 0.15 68 1013.8
20260507135154 18 57 11.3 20.9 0.00 0.61 0.15 68 1013.8
20260507135031 18 98 14.5 20.9 0.00 0.61 0.15 67 1013.8
20260507134928 18 70 14.5 20.9 0.00 0.61 0.15 67 1013.8
20260507134836 18 103 14.5 20.9 0.00 0.61 0.15 67 1013.8
20260507134730 18 99 14.5 20.9 0.00 0.61 0.15 67 1013.9
20260507134638 18 75 12.9 20.9 0.00 0.61 0.15 68 1013.9
20260507134530 18 95 12.9 22.5 0.00 0.61 0.15 68 1013.8
20260507134442 18 59 14.5 22.5 0.00 0.61 0.15 68 1013.8
20260507134319 18 74 17.7 22.5 0.00 0.61 0.15 68 1013.8
20260507134228 18 61 16.1 22.5 0.00 0.61 0.15 68 1013.8
20260507134142 18 88 16.1 22.5 0.00 0.61 0.15 68 1013.8
20260507134045 18 43 16.1 22.5 0.00 0.61 0.15 68 1013.8
20260507133921 18 84 16.1 22.5 0.00 0.61 0.15 67 1013.8
20260507133849 18 87 17.7 22.5 0.00 0.61 0.15 67 1013.8
20260507133727 18 85 16.1 22.5 0.00 0.61 0.15 68 1013.8
20260507133621 18 67 16.1 22.5 0.00 0.61 0.15 68 1013.8
20260507133529 18 59 14.5 22.5 0.00 0.61 0.15 68 1013.8
20260507133422 18 88 12.9 22.5 0.00 0.61 0.15 69 1013.8
20260507133332 18 72 11.3 22.5 0.00 0.61 0.15 69 1013.8
20260507133229 18 74 14.5 22.5 0.00 0.61 0.15 69 1013.8
20260507133137 18 84 16.1 22.5 0.00 0.61 0.15 68 1013.8
20260507133112 18 65 17.7 22.5 0.00 0.61 0.15 68 1013.8
20260507132925 18 99 17.7 22.5 0.00 0.61 0.15 69 1013.8
20260507132843 18 89 17.7 22.5 0.00 0.61 0.15 69 1013.8
20260507132730 18 88 16.1 22.5 0.00 0.61 0.15 69 1013.8
20260507132638 18 92 16.1 22.5 0.00 0.61 0.15 68 1013.8
20260507132532 18 81 17.7 22.5 0.00 0.61 0.15 68 1013.8
20260507132427 18 67 16.1 22.5 0.00 0.61 0.15 68 1013.8
20260507132354 18 93 16.1 20.9 0.00 0.61 0.15 69 1013.8
20260507132223 18 76 14.5 20.9 0.00 0.61 0.15 70 1013.8
20260507132152 18 90 14.5 20.9 0.00 0.61 0.15 70 1013.8
20260507132023 18 81 12.9 20.9 0.00 0.61 0.15 70 1013.8
20260507131919 18 63 12.9 20.9 0.00 0.61 0.15 70 1013.8
20260507131736 18 82 12.9 20.9 0.00 0.61 0.15 70 1013.8
20260507131629 18 95 11.3 20.9 0.00 0.61 0.15 71 1013.8
20260507131533 18 84 11.3 20.9 0.00 0.61 0.15 71 1013.9
20260507131434 18 117 12.9 20.9 0.00 0.61 0.15 70 1013.9
20260507131341 18 126 16.1 20.9 0.00 0.61 0.15 70 1013.8
20260507131238 18 70 17.7 20.9 0.00 0.61 0.15 70 1013.9
20260507131136 18 81 16.1 20.9 0.00 0.61 0.15 70 1013.9
20260507131041 18 87 14.5 20.9 0.00 0.61 0.15 71 1013.9
20260507130949 18 109 14.5 20.9 0.00 0.61 0.15 71 1013.9
20260507130829 18 75 14.5 22.5 0.00 0.61 0.15 71 1013.9
20260507130723 18 98 16.1 22.5 0.00 0.61 0.15 70 1013.8
20260507130632 18 80 16.1 22.5 0.00 0.61 0.15 70 1013.8
20260507130529 18 86 16.1 22.5 0.00 0.61 0.15 70 1013.9
20260507130422 18 83 14.5 22.5 0.00 0.61 0.15 70 1013.9
20260507130334 18 87 16.1 22.5 0.00 0.61 0.15 70 1013.9
20260507130217 18 69 16.1 22.5 0.00 0.61 0.15 70 1013.9
20260507130149 18 58 14.5 22.5 0.00 0.61 0.15 70 1013.9
20260507130022 18 65 14.5 19.3 0.00 0.61 0.15 70 1013.8
20260507125950 18 84 12.9 19.3 0.00 0.61 0.15 70 1013.8
20260507125822 18 99 12.9 19.3 0.00 0.61 0.15 69 1013.9
20260507125750 18 78 12.9 19.3 0.00 0.61 0.15 69 1013.9
20260507125621 18 84 12.9 19.3 0.00 0.61 0.15 69 1013.8
20260507125532 18 55 12.9 19.3 0.00 0.61 0.15 68 1013.8
20260507125439 19 61 12.9 19.3 0.00 0.61 0.15 68 1013.9
20260507125334 19 70 11.3 19.3 0.00 0.61 0.15 68 1013.8
20260507125232 19 46 9.7 17.7 0.00 0.61 0.15 68 1013.8
20260507125200 19 71 6.4 16.1 0.00 0.61 0.15 68 1013.8
20260507125044 19 73 8.0 16.1 0.00 0.61 0.15 68 1013.8
20260507124918 19 54 8.0 16.1 0.00 0.61 0.15 68 1013.8
20260507124836 19 69 8.0 16.1 0.00 0.61 0.15 67 1013.8
20260507124727 19 88 8.0 16.1 0.00 0.61 0.15 67 1013.8
20260507124621 19 69 8.0 16.1 0.00 0.61 0.15 67 1013.8
20260507124519 19 76 8.0 16.1 0.00 0.61 0.15 67 1013.9
20260507124427 19 80 8.0 17.7 0.00 0.61 0.15 67 1013.9
20260507124355 19 98 8.0 17.7 0.00 0.61 0.15 67 1013.9
20260507124229 19 81 8.0 17.7 0.00 0.61 0.15 67 1013.8
20260507124157 19 96 8.0 17.7 0.00 0.61 0.15 67 1013.9
20260507124125 19 84 9.7 17.7 0.00 0.61 0.15 67 1013.9
20260507124005 19 55 9.7 17.7 0.00 0.61 0.15 67 1013.8
20260507123900 19 49 9.7 17.7 0.00 0.61 0.15 66 1013.8
20260507123747 19 72 11.3 17.7 0.00 0.61 0.15 66 1013.8
20260507123621 19 60 11.3 17.7 0.00 0.61 0.15 66 1013.8
20260507123550 20 62 9.7 17.7 0.00 0.61 0.15 66 1013.8
20260507123437 20 61 8.0 16.1 0.00 0.61 0.15 66 1013.8
20260507123344 20 69 8.0 16.1 0.00 0.61 0.15 65 1013.8
20260507123222 20 59 8.0 16.1 0.00 0.61 0.15 65 1013.8
20260507123138 20 51 9.7 16.1 0.00 0.61 0.15 65 1013.8
20260507123041 20 39 8.0 16.1 0.00 0.61 0.15 66 1013.8
20260507122935 20 34 9.7 16.1 0.00 0.61 0.15 66 1013.9
20260507122842 19 61 8.0 19.3 0.00 0.61 0.15 66 1013.8
20260507122718 19 86 8.0 19.3 0.00 0.61 0.15 66 1013.8
20260507122650 19 55 9.7 19.3 0.00 0.61 0.15 66 1013.8
20260507122527 19 40 9.7 19.3 0.00 0.61 0.15 66 1013.8
20260507122423 19 66 9.7 19.3 0.00 0.61 0.15 66 1013.8
20260507122331 19 70 11.3 19.3 0.00 0.61 0.15 67 1013.8
20260507122226 19 78 11.3 19.3 0.00 0.61 0.15 67 1013.9
20260507122136 19 79 12.9 19.3 0.00 0.61 0.15 67 1013.8
20260507122051 19 47 11.3 19.3 0.00 0.61 0.15 66 1013.9
20260507121921 19 59 12.9 19.3 0.00 0.61 0.15 66 1013.9
20260507121817 19 50 11.3 19.3 0.00 0.61 0.15 66 1013.9
20260507121747 19 45 11.3 19.3 0.00 0.61 0.15 67 1013.9
20260507121622 19 90 11.3 19.3 0.00 0.61 0.15 66 1013.9
20260507121548 19 31 9.7 19.3 0.00 0.61 0.15 66 1013.9
20260507121452 19 39 11.3 19.3 0.00 0.61 0.15 67 1013.9
20260507121326 19 74 8.0 19.3 0.00 0.61 0.15 67 1013.9
20260507121219 19 55 9.7 19.3 0.00 0.61 0.15 67 1013.9
20260507121132 19 51 9.7 19.3 0.00 0.61 0.15 67 1013.9
20260507121057 19 49 11.3 19.3 0.00 0.61 0.15 67 1013.9
20260507120930 19 51 9.7 19.3 0.00 0.61 0.15 67 1013.9
20260507120835 19 67 8.0 19.3 0.00 0.61 0.15 67 1013.9
20260507120730 19 57 12.9 19.3 0.00 0.61 0.15 66 1013.9
20260507120658 19 62 14.5 19.3 0.00 0.61 0.15 66 1013.9
20260507120528 19 49 11.3 17.7 0.00 0.61 0.15 66 1013.9
20260507120456 19 45 9.7 16.1 0.00 0.61 0.15 66 1014.0
20260507120349 19 38 9.7 16.1 0.00 0.61 0.15 65 1014.0
20260507120240 19 42 11.3 16.1 0.00 0.61 0.15 65 1014.0
20260507120131 19 32 11.3 16.1 0.00 0.61 0.15 65 1014.0
20260507120101 19 55 9.7 16.1 0.00 0.61 0.15 66 1014.0
20260507115917 19 22 9.7 16.1 0.00 0.61 0.15 66 1014.0
20260507115815 19 54 9.7 19.3 0.00 0.61 0.15 66 1013.9
20260507115727 19 54 9.7 19.3 0.00 0.61 0.15 66 1013.9
20260507115644 19 10 8.0 19.3 0.00 0.61 0.15 66 1014.1
20260507115444 19 55 8.0 19.3 0.00 0.61 0.15 66 1014.0
20260507115316 19 46 9.7 19.3 0.00 0.61 0.15 66 1014.1
20260507115248 19 38 11.3 19.3 0.00 0.61 0.15 66 1014.1
20260507115121 19 32 11.3 19.3 0.00 0.61 0.15 65 1014.0
20260507115049 19 40 12.9 19.3 0.00 0.61 0.15 65 1014.0
20260507114921 19 34 11.3 17.7 0.00 0.61 0.15 65 1014.0
20260507114831 19 51 9.7 17.7 0.00 0.61 0.15 65 1014.0
20260507114730 19 59 9.7 17.7 0.00 0.61 0.15 65 1014.0
20260507114637 19 44 11.3 17.7 0.00 0.61 0.15 64 1014.0
20260507114528 19 83 11.3 17.7 0.00 0.61 0.15 64 1014.0
20260507114423 19 49 11.3 16.1 0.00 0.61 0.15 64 1014.0
20260507114331 19 63 11.3 16.1 0.00 0.61 0.15 64 1014.0
20260507114259 19 49 11.3 17.7 0.00 0.61 0.15 64 1014.0
20260507114156 19 49 9.7 17.7 0.00 0.61 0.15 64 1014.0
20260507114042 19 55 9.7 17.7 0.00 0.61 0.15 64 1014.0
20260507113922 19 77 11.3 17.7 0.00 0.61 0.15 63 1014.0
20260507113821 19 46 11.3 17.7 0.00 0.61 0.15 64 1014.0
20260507113748 19 59 9.7 17.7 0.00 0.61 0.15 64 1014.0
20260507113655 19 31 11.3 17.7 0.00 0.61 0.15 64 1014.1
20260507113529 19 36 11.3 17.7 0.00 0.61 0.15 64 1014.1
20260507113437 19 60 11.3 17.7 0.00 0.61 0.15 64 1014.1
20260507113331 19 53 11.3 17.7 0.00 0.61 0.15 64 1014.0
20260507113236 19 14 9.7 17.7 0.00 0.61 0.15 64 1014.1
20260507113146 19 78 11.3 22.5 0.00 0.61 0.15 64 1014.1
20260507113040 19 63 12.9 22.5 0.00 0.61 0.15 64 1014.1
20260507112948 18 31 12.9 22.5 0.00 0.61 0.15 64 1014.1
20260507112819 18 60 11.3 22.5 0.00 0.61 0.15 65 1014.1
20260507112737 18 51 11.3 22.5 0.00 0.61 0.15 65 1014.1
20260507112644 18 360 11.3 22.5 0.00 0.61 0.15 64 1014.1
20260507112525 18 52 12.9 22.5 0.00 0.61 0.15 63 1014.1
20260507112421 18 52 14.5 22.5 0.00 0.61 0.15 63 1014.1
20260507112351 18 27 14.5 22.5 0.00 0.61 0.15 63 1014.1
20260507112238 18 28 12.9 19.3 0.00 0.61 0.15 64 1014.1
20260507112117 18 42 11.3 16.1 0.00 0.61 0.15 64 1014.1
20260507112035 18 53 12.9 16.1 0.00 0.61 0.15 65 1014.1
20260507111941 18 32 12.9 16.1 0.00 0.61 0.15 66 1014.1
20260507111822 18 22 11.3 17.7 0.00 0.61 0.15 67 1014.1
20260507111720 18 37 9.7 17.7 0.00 0.61 0.15 67 1014.1
20260507111629 18 32 11.3 19.3 0.00 0.61 0.15 67 1014.1
20260507111521 18 24 11.3 20.9 0.00 0.61 0.15 67 1014.1
20260507111425 18 19 9.7 22.5 0.00 0.61 0.15 67 1014.1
20260507111321 18 22 11.3 22.5 0.00 0.61 0.15 67 1014.1
20260507111230 18 47 12.9 22.5 0.00 0.61 0.15 67 1014.1
20260507111132 18 46 12.9 22.5 0.00 0.61 0.15 66 1014.1
20260507111056 18 40 14.5 22.5 0.00 0.61 0.15 67 1014.1
20260507110931 18 36 14.5 22.5 0.00 0.61 0.15 67 1014.1
20260507110819 18 5 17.7 22.5 0.00 0.61 0.15 67 1014.1
20260507110734 18 17 17.7 22.5 0.00 0.61 0.15 67 1014.1
20260507110642 18 26 17.7 22.5 0.00 0.61 0.15 67 1014.1
20260507110518 18 27 17.7 22.5 0.00 0.61 0.15 66 1014.1
20260507110419 18 36 17.7 22.5 0.00 0.61 0.15 66 1014.2
20260507110328 18 30 17.7 22.5 0.00 0.61 0.15 66 1014.2
20260507110221 18 15 17.7 22.5 0.00 0.61 0.15 67 1014.1
20260507110133 18 25 16.1 22.5 0.00 0.61 0.15 66 1014.1
20260507110026 18 32 16.1 20.9 0.00 0.61 0.15 67 1014.1
20260507105934 18 38 16.1 20.9 0.00 0.61 0.15 66 1014.1
20260507105902 18 19 16.1 20.9 0.00 0.61 0.15 67 1014.1
20260507105719 18 31 17.7 19.3 0.00 0.61 0.15 66 1014.1
20260507105633 18 28 16.1 19.3 0.00 0.61 0.15 66 1014.1
20260507105521 18 26 14.5 19.3 0.00 0.61 0.15 66 1014.1
20260507105419 19 22 16.1 17.7 0.00 0.61 0.15 66 1014.2
20260507105346 19 32 14.5 17.7 0.00 0.61 0.15 66 1014.2
20260507105219 19 32 14.5 17.7 0.00 0.61 0.15 67 1014.1
20260507105120 19 34 12.9 17.7 0.00 0.61 0.15 67 1014.1
20260507105032 19 27 12.9 17.7 0.00 0.61 0.15 67 1014.1
20260507104925 19 21 12.9 17.7 0.00 0.61 0.15 67 1014.1
20260507104836 19 17 14.5 17.7 0.00 0.61 0.15 67 1014.1
20260507104728 19 15 12.9 17.7 0.00 0.61 0.15 67 1014.2
20260507104636 19 13 11.3 17.7 0.00 0.61 0.15 67 1014.2
20260507104541 18 9 12.9 17.7 0.00 0.61 0.15 67 1014.2
20260507104421 18 27 12.9 19.3 0.00 0.61 0.15 67 1014.2
20260507104316 18 19 12.9 19.3 0.00 0.61 0.15 67 1014.3
20260507104227 18 27 12.9 19.3 0.00 0.61 0.15 67 1014.3
20260507104140 18 28 12.9 20.9 0.00 0.61 0.15 67 1014.3
20260507104043 18 30 12.9 22.5 0.00 0.61 0.15 67 1014.4
20260507103951 18 51 12.9 22.5 0.00 0.61 0.15 67 1014.4
20260507103822 18 30 12.9 22.5 0.00 0.61 0.15 68 1014.3
20260507103751 18 15 12.9 22.5 0.00 0.61 0.15 68 1014.3
20260507103629 18 39 12.9 22.5 0.00 0.61 0.15 68 1014.4
20260507103535 18 34 12.9 22.5 0.00 0.61 0.15 68 1014.3
20260507103429 18 52 16.1 22.5 0.00 0.61 0.15 67 1014.3
20260507103329 18 22 17.7 22.5 0.00 0.61 0.15 67 1014.2
20260507103237 18 37 17.7 22.5 0.00 0.61 0.15 67 1014.3
20260507103130 18 40 16.1 22.5 0.00 0.61 0.15 68 1014.2
20260507103040 18 48 17.7 22.5 0.00 0.61 0.15 68 1014.2
20260507102947 18 10 17.7 22.5 0.00 0.61 0.15 67 1014.2
20260507102822 18 31 17.7 24.1 0.00 0.61 0.15 68 1014.3
20260507102737 18 37 17.7 24.1 0.00 0.61 0.15 68 1014.3
20260507102645 18 38 17.7 24.1 0.00 0.61 0.15 69 1014.2
20260507102520 18 22 17.7 24.1 0.00 0.61 0.15 68 1014.2
20260507102449 18 5 17.7 24.1 0.00 0.61 0.15 68 1014.2
20260507102331 18 46 17.7 24.1 0.00 0.61 0.15 68 1014.2
20260507102238 18 22 19.3 24.1 0.00 0.61 0.15 67 1014.2
20260507102136 18 19 19.3 24.1 0.00 0.61 0.15 67 1014.2
20260507102027 18 23 17.7 24.1 0.00 0.61 0.15 68 1014.2
20260507101935 18 46 16.1 22.5 0.00 0.61 0.15 68 1014.3
20260507101830 18 30 16.1 22.5 0.00 0.61 0.15 69 1014.2
20260507101740 18 51 16.1 22.5 0.00 0.61 0.15 68 1014.2
20260507101624 18 35 17.7 22.5 0.00 0.61 0.15 68 1014.2
20260507101530 18 28 19.3 24.1 0.00 0.61 0.15 68 1014.2
20260507101336 18 34 17.7 24.1 0.00 0.61 0.15 68 1014.2
20260507101226 18 36 19.3 24.1 0.00 0.61 0.15 68 1014.2
20260507101143 18 33 17.7 24.1 0.00 0.61 0.15 69 1014.2
20260507101053 18 27 17.7 24.1 0.00 0.61 0.15 69 1014.2
20260507100959 18 5 19.3 24.1 0.00 0.61 0.15 68 1014.3
20260507100845 18 30 19.3 24.1 0.00 0.61 0.15 68 1014.2
20260507100747 18 53 17.7 24.1 0.00 0.61 0.15 68 1014.2
20260507100637 18 44 17.7 24.1 0.00 0.61 0.15 68 1014.2
20260507100531 18 55 17.7 24.1 0.00 0.61 0.15 67 1014.2
20260507100459 18 25 19.3 24.1 0.00 0.61 0.15 66 1014.2
20260507100335 19 32 19.3 24.1 0.00 0.61 0.15 66 1014.2
20260507100240 19 29 16.1 22.5 0.00 0.61 0.15 67 1014.3
20260507100150 19 11 14.5 19.3 0.00 0.61 0.15 67 1014.3
20260507100025 20 5 12.9 19.3 0.00 0.61 0.15 66 1014.3
20260507095847 20 15 14.5 19.3 0.00 0.61 0.15 66 1014.2
20260507095721 20 24 12.9 19.3 0.00 0.61 0.15 66 1014.3
20260507095639 20 17 12.9 19.3 0.00 0.61 0.15 66 1014.3
20260507095542 20 25 12.9 20.9 0.00 0.61 0.15 66 1014.2
20260507095435 20 45 12.9 20.9 0.00 0.61 0.15 66 1014.2
20260507095343 19 5 11.3 20.9 0.00 0.61 0.15 66 1014.2
20260507095257 19 73 9.7 20.9 0.00 0.61 0.15 67 1014.2
20260507095229 19 20 11.3 20.9 0.00 0.61 0.15 67 1014.2
20260507095043 19 360 12.9 20.9 0.00 0.61 0.15 66 1014.2
20260507094917 20 344 14.5 20.9 0.00 0.61 0.15 66 1014.2
20260507094849 20 26 14.5 20.9 0.00 0.61 0.15 66 1014.2
20260507094723 20 9 12.9 20.9 0.00 0.61 0.15 66 1014.2
20260507094629 20 5 11.3 20.9 0.00 0.61 0.15 67 1014.2
20260507094523 20 5 9.7 22.5 0.00 0.61 0.15 68 1014.2
20260507094437 20 43 9.7 22.5 0.00 0.61 0.15 68 1014.2
20260507094331 20 335 11.3 22.5 0.00 0.61 0.15 68 1014.2
20260507094242 20 346 12.9 22.5 0.00 0.61 0.15 68 1014.2
20260507094122 20 18 12.9 22.5 0.00 0.61 0.15 68 1014.2
20260507094038 20 5 12.9 22.5 0.00 0.61 0.15 68 1014.2
20260507093945 20 11 12.9 22.5 0.00 0.61 0.15 68 1014.2
20260507093852 20 19 14.5 22.5 0.00 0.61 0.15 68 1014.2
20260507093730 20 15 12.9 22.5 0.00 0.61 0.15 69 1014.2
20260507093622 20 11 11.3 22.5 0.00 0.61 0.15 71 1014.2
20260507093527 20 330 12.9 22.5 0.00 0.61 0.15 71 1014.2
20260507093420 20 15 12.9 22.5 0.00 0.61 0.15 71 1014.2
20260507093348 20 13 11.3 22.5 0.00 0.61 0.15 71 1014.2
20260507093222 20 5 12.9 22.5 0.00 0.61 0.15 70 1014.1
20260507093154 20 355 12.9 22.5 0.00 0.61 0.15 70 1014.1
20260507093103 20 26 12.9 22.5 0.00 0.61 0.15 70 1014.1
20260507093032 20 338 12.9 22.5 0.00 0.61 0.15 70 1014.1
20260507092818 20 28 11.3 20.9 0.00 0.61 0.15 70 1014.1
20260507092735 20 40 9.7 20.9 0.00 0.61 0.15 70 1014.1
20260507092702 20 355 11.3 20.9 0.00 0.61 0.15 70 1014.1
20260507092546 20 38 12.9 20.9 0.00 0.61 0.15 70 1014.1
20260507092421 20 5 11.3 19.3 0.00 0.61 0.15 70 1014.1
20260507092333 20 5 9.7 19.3 0.00 0.61 0.15 70 1014.1
20260507092249 20 59 9.7 19.3 0.00 0.61 0.15 70 1014.1
20260507092142 20 360 11.3 20.9 0.00 0.61 0.15 70 1014.1
20260507092048 20 57 11.3 20.9 0.00 0.61 0.15 70 1014.1
20260507091919 20 13 9.7 20.9 0.00 0.61 0.15 70 1014.0
20260507091847 20 40 11.3 20.9 0.00 0.61 0.15 69 1014.0
20260507091725 20 56 9.7 20.9 0.00 0.61 0.15 70 1014.0
20260507091623 20 27 11.3 20.9 0.00 0.61 0.15 70 1014.0
20260507091527 20 360 11.3 20.9 0.00 0.61 0.15 70 1014.0
20260507091423 20 13 11.3 20.9 0.00 0.61 0.15 69 1014.0
20260507091332 20 15 12.9 20.9 0.00 0.61 0.15 70 1014.0
20260507091230 21 339 11.3 20.9 0.00 0.61 0.15 69 1013.9
20260507091124 21 38 9.7 20.9 0.00 0.61 0.15 68 1013.9
20260507091048 21 16 12.9 20.9 0.00 0.61 0.15 67 1013.9
20260507090934 21 350 12.9 20.9 0.00 0.61 0.15 67 1013.9
20260507090835 21 350 11.3 20.9 0.00 0.61 0.15 67 1013.9
20260507090746 21 9 9.7 20.9 0.00 0.61 0.15 67 1013.9
20260507090619 21 338 8.0 20.9 0.00 0.61 0.15 66 1013.9
20260507090533 21 36 6.4 14.5 0.00 0.61 0.15 65 1013.9
20260507090444 21 96 6.4 14.5 0.00 0.61 0.15 65 1013.9
20260507090322 21 5 6.4 12.9 0.00 0.61 0.15 63 1013.9
20260507090251 21 360 6.4 12.9 0.00 0.61 0.15 63 1013.9
20260507090129 21 355 1.6 11.3 0.00 0.61 0.15 63 1013.9
20260507090019 21 31 1.6 11.3 0.00 0.61 0.15 63 1014.0
20260507085929 21 31 3.2 11.3 0.00 0.61 0.15 63 1014.0
20260507085823 21 13 3.2 11.3 0.00 0.61 0.15 63 1014.0
20260507085752 21 350 4.8 11.3 0.00 0.61 0.15 63 1014.0
20260507085625 21 36 3.2 11.3 0.00 0.61 0.15 63 1013.9
20260507085530 21 15 4.8 11.3 0.00 0.61 0.15 63 1013.9
20260507085430 21 21 8.0 11.3 0.00 0.61 0.15 63 1013.9
20260507085338 21 16 8.0 11.3 0.00 0.61 0.15 63 1014.0
20260507085238 21 26 3.2 9.7 0.00 0.61 0.15 65 1013.9
20260507085132 21 355 1.6 9.7 0.00 0.61 0.15 65 1014.0
20260507085040 21 13 4.8 9.7 0.10 0.61 0.15 65 1014.0
20260507084932 21 13 6.4 9.7 0.10 0.61 0.15 64 1014.1
20260507084825 21 9 4.8 9.7 0.10 0.61 0.15 64 1014.0
20260507084756 21 5 4.8 9.7 0.10 0.61 0.15 64 1014.0
20260507084632 21 5 3.2 11.3 0.10 0.61 0.15 64 1014.0
20260507084529 21 360 4.8 11.3 0.10 0.61 0.15 64 1014.0
20260507084435 21 22 6.4 11.3 0.10 0.61 0.15 64 1013.9
20260507084333 21 35 4.8 11.3 0.10 0.61 0.15 64 1013.9
20260507084216 21 29 4.8 11.3 0.10 0.61 0.15 65 1013.9
20260507084136 21 44 4.8 12.9 0.10 0.61 0.15 65 1013.9
20260507084022 21 5 4.8 12.9 0.10 0.61 0.15 64 1013.9
20260507083937 21 344 4.8 12.9 0.10 0.61 0.15 64 1013.9
20260507083820 21 107 3.2 12.9 0.10 0.61 0.15 63 1013.9
20260507083750 21 110 3.2 12.9 0.10 0.61 0.15 64 1013.9
20260507083625 21 59 6.4 12.9 0.10 0.61 0.15 64 1013.9
20260507083542 21 285 6.4 12.9 0.10 0.61 0.15 63 1013.9
20260507083430 21 148 3.2 14.5 0.10 0.61 0.15 64 1013.9
20260507083341 21 135 6.4 14.5 0.10 0.61 0.15 64 1013.8
20260507083236 21 250 6.4 17.7 0.10 0.61 0.15 64 1013.9
20260507083134 21 263 3.2 17.7 0.10 0.61 0.15 64 1013.9
20260507083040 21 21 3.2 20.9 0.10 0.61 0.15 64 1013.9
20260507082933 20 329 4.8 20.9 0.10 0.61 0.15 63 1013.8
20260507082841 20 322 6.4 20.9 0.10 0.61 0.15 63 1013.8
20260507082722 20 312 6.4 20.9 0.10 0.61 0.15 63 1013.9
20260507082650 20 331 8.0 20.9 0.10 0.61 0.15 62 1013.9
20260507082522 20 229 14.5 20.9 0.10 0.61 0.15 62 1013.7
20260507082451 20 238 12.9 20.9 0.10 0.61 0.15 63 1013.7
20260507082325 20 263 14.5 20.9 0.10 0.61 0.15 63 1013.7
20260507082220 20 269 16.1 20.9 0.10 0.61 0.15 63 1013.6
20260507082153 20 274 14.5 19.3 0.10 0.61 0.15 64 1013.6
20260507082028 20 207 12.9 17.7 0.10 0.61 0.15 64 1013.6
20260507081957 20 239 12.9 17.7 0.10 0.61 0.15 66 1013.5
20260507081830 20 212 11.3 17.7 0.10 0.61 0.15 68 1013.5
20260507081759 20 198 8.0 16.1 0.10 0.61 0.15 68 1013.5
20260507081706 20 160 3.2 14.5 0.10 0.61 0.15 68 1013.5
20260507081520 20 165 6.4 14.5 0.10 0.61 0.15 68 1013.5
20260507081448 20 165 6.4 14.5 0.10 0.61 0.15 68 1013.5
20260507081329 20 138 9.7 14.5 0.10 0.61 0.15 68 1013.5
20260507081222 20 137 8.0 14.5 0.10 0.61 0.15 67 1013.5
20260507081131 20 138 8.0 14.5 0.10 0.61 0.15 67 1013.5
20260507081056 20 171 9.7 14.5 0.10 0.61 0.15 67 1013.6
20260507080944 20 165 9.7 14.5 0.10 0.61 0.15 67 1013.6
20260507080820 20 170 8.0 12.9 0.10 0.61 0.15 67 1013.6
20260507080748 20 172 8.0 12.9 0.10 0.61 0.15 67 1013.6
20260507080628 20 153 8.0 12.9 0.10 0.61 0.15 67 1013.6
20260507080555 20 236 9.7 16.1 0.10 0.61 0.15 68 1013.6
20260507080428 20 205 8.0 16.1 0.10 0.61 0.15 69 1013.6
20260507080334 19 207 8.0 16.1 0.10 0.61 0.15 69 1013.5
20260507080241 19 196 8.0 16.1 0.10 0.61 0.15 69 1013.6
20260507080121 19 169 9.7 16.1 0.10 0.61 0.15 68 1013.6
20260507080033 19 192 9.7 16.1 0.10 0.61 0.15 68 1013.6
20260507075927 19 213 11.3 16.1 0.10 0.61 0.15 68 1013.6
20260507075822 19 245 12.9 16.1 0.10 0.61 0.15 68 1013.5
20260507075718 19 259 11.3 16.1 0.10 0.61 0.15 69 1013.5
20260507075650 19 251 9.7 16.1 0.10 0.61 0.15 70 1013.5
20260507075545 19 217 8.0 12.9 0.10 0.61 0.15 70 1013.5
20260507075419 18 167 9.7 12.9 0.10 0.61 0.15 71 1013.7
20260507075319 18 196 9.7 14.5 0.10 0.61 0.15 71 1013.7
20260507075231 18 201 6.4 14.5 0.10 0.61 0.15 71 1013.7
20260507075125 18 167 6.4 14.5 0.00 0.51 0.13 71 1013.7
20260507075056 18 167 6.4 17.7 0.00 0.51 0.13 71 1013.7
20260507074932 18 173 6.4 17.7 0.00 0.51 0.13 71 1013.7
20260507074842 18 192 6.4 17.7 0.00 0.51 0.13 71 1013.6
20260507074810 18 167 6.4 17.7 0.00 0.51 0.13 71 1013.7
20260507074642 18 142 9.7 17.7 0.00 0.51 0.13 70 1013.6
20260507074530 18 169 8.0 17.7 0.00 0.51 0.13 70 1013.6
20260507074431 18 163 8.0 17.7 0.00 0.51 0.13 70 1013.7
20260507074323 18 175 11.3 17.7 0.00 0.51 0.13 70 1013.7
20260507074231 18 174 11.3 20.9 0.00 0.51 0.13 70 1013.7
20260507074122 18 188 11.3 20.9 0.00 0.51 0.13 70 1013.7
20260507074049 18 177 11.3 20.9 0.00 0.51 0.13 70 1013.7
20260507073933 18 194 12.9 20.9 0.00 0.51 0.13 70 1013.6
20260507073825 18 173 12.9 20.9 0.00 0.51 0.13 70 1013.6
20260507073738 18 185 14.5 20.9 0.00 0.51 0.13 70 1013.6
20260507073635 18 189 14.5 20.9 0.00 0.51 0.13 69 1013.7
20260507073604 18 193 12.9 20.9 0.00 0.51 0.13 70 1013.6
20260507073507 18 187 12.9 20.9 0.00 0.51 0.13 70 1013.7
20260507073320 18 183 12.9 20.9 0.00 0.51 0.13 70 1013.6
20260507073228 18 189 11.3 20.9 0.00 0.51 0.13 70 1013.6
20260507073143 18 161 11.3 20.9 0.00 0.51 0.13 70 1013.7
20260507073044 18 199 12.9 20.9 0.00 0.51 0.13 70 1013.6
20260507072922 18 186 12.9 20.9 0.00 0.51 0.13 70 1013.7
20260507072818 18 181 12.9 20.9 0.00 0.51 0.13 70 1013.7
20260507072747 18 195 14.5 20.9 0.00 0.51 0.13 70 1013.7
20260507072635 18 179 12.9 20.9 0.00 0.51 0.13 70 1013.6
20260507072528 18 186 12.9 20.9 0.00 0.51 0.13 71 1013.6
20260507072422 18 224 12.9 20.9 0.00 0.51 0.13 71 1013.7
20260507072330 18 172 14.5 20.9 0.00 0.51 0.13 71 1013.7
20260507072230 18 184 16.1 20.9 0.00 0.51 0.13 71 1013.7
20260507072140 18 237 16.1 20.9 0.00 0.51 0.13 71 1013.7
20260507072032 18 234 16.1 20.9 0.00 0.51 0.13 71 1013.7
20260507071940 18 254 14.5 20.9 0.00 0.51 0.13 72 1013.6
20260507071856 18 232 12.9 20.9 0.00 0.51 0.13 73 1013.7
20260507071742 18 213 12.9 20.9 0.00 0.51 0.13 73 1013.7
20260507071622 18 180 12.9 17.7 0.00 0.51 0.13 73 1013.8
20260507071549 18 188 12.9 17.7 0.00 0.51 0.13 73 1013.8
20260507071443 18 226 12.9 17.7 0.00 0.51 0.13 73 1013.8
20260507071333 18 232 12.9 17.7 0.00 0.51 0.13 74 1013.8
20260507071239 18 215 12.9 17.7 0.00 0.51 0.13 74 1013.8
20260507071147 18 218 12.9 17.7 0.00 0.51 0.13 75 1013.7
20260507071019 18 221 12.9 17.7 0.00 0.51 0.13 75 1013.7
20260507070952 18 228 12.9 17.7 0.00 0.51 0.13 75 1013.7
20260507070830 17 236 12.9 17.7 0.00 0.51 0.13 75 1013.7
20260507070738 17 204 12.9 17.7 0.00 0.51 0.13 75 1013.7
20260507070633 17 218 11.3 17.7 0.00 0.51 0.13 77 1013.7
20260507070528 17 217 11.3 17.7 0.00 0.51 0.13 77 1013.7
20260507070435 17 205 11.3 17.7 0.00 0.51 0.13 77 1013.7
20260507070332 17 181 11.3 17.7 0.00 0.51 0.13 77 1013.7
20260507070244 17 191 11.3 17.7 0.00 0.51 0.13 78 1013.7
20260507070121 17 183 11.3 17.7 0.00 0.51 0.13 78 1013.7
20260507070031 17 198 11.3 17.7 0.00 0.51 0.13 79 1013.7
20260507065926 17 202 11.3 16.1 0.00 0.51 0.13 79 1013.7
20260507065837 17 194 9.7 16.1 0.00 0.51 0.13 79 1013.7
20260507065731 17 196 11.3 16.1 0.00 0.51 0.13 79 1013.7
20260507065700 17 189 11.3 16.1 0.00 0.51 0.13 79 1013.7
20260507065530 17 182 9.7 16.1 0.00 0.51 0.13 79 1013.7
20260507065422 17 172 6.4 17.7 0.00 0.51 0.13 79 1013.6
20260507065316 17 163 6.4 17.7 0.00 0.51 0.13 79 1013.7
20260507065249 17 165 4.8 17.7 0.00 0.51 0.13 79 1013.7
20260507065123 17 192 8.0 19.3 0.00 0.51 0.13 79 1013.7
20260507065015 17 190 8.0 19.3 0.00 0.51 0.13 80 1013.6
20260507064927 17 180 8.0 19.3 0.00 0.51 0.13 80 1013.6
20260507064838 17 142 9.7 19.3 0.00 0.51 0.13 80 1013.6
20260507064731 17 187 11.3 19.3 0.00 0.51 0.13 80 1013.6
20260507064642 17 174 11.3 19.3 0.00 0.51 0.13 80 1013.6
20260507064549 17 167 11.3 19.3 0.00 0.51 0.13 80 1013.6
20260507064422 17 179 12.9 19.3 0.00 0.51 0.13 80 1013.6
20260507064338 17 188 11.3 19.3 0.00 0.51 0.13 80 1013.6
20260507064244 17 202 9.7 19.3 0.00 0.51 0.13 81 1013.6
20260507064153 17 192 11.3 19.3 0.00 0.51 0.13 81 1013.6
20260507064106 17 184 11.3 19.3 0.00 0.51 0.13 81 1013.5
20260507064014 16 188 9.7 19.3 0.00 0.51 0.13 81 1013.5
20260507063920 16 195 11.3 19.3 0.00 0.51 0.13 81 1013.5
20260507063740 16 210 12.9 19.3 0.00 0.51 0.13 81 1013.5
20260507063638 16 205 11.3 17.7 0.00 0.51 0.13 81 1013.5
20260507063536 16 194 12.9 17.7 0.00 0.51 0.13 81 1013.4
20260507063442 16 226 12.9 17.7 0.00 0.51 0.13 81 1013.4
20260507063350 16 229 12.9 17.7 0.00 0.51 0.13 82 1013.4
20260507063227 16 227 12.9 17.7 0.00 0.51 0.13 82 1013.5
20260507063140 16 202 12.9 17.7 0.00 0.51 0.13 82 1013.5
20260507063047 16 213 11.3 17.7 0.00 0.51 0.13 82 1013.4
20260507063009 16 227 9.7 17.7 0.00 0.51 0.13 82 1013.4
20260507062937 16 249 9.7 17.7 0.00 0.51 0.13 82 1013.4
20260507062722 16 227 9.7 17.7 0.00 0.51 0.13 83 1013.5
20260507062631 16 230 11.3 17.7 0.00 0.51 0.13 83 1013.5
20260507062530 16 211 11.3 17.7 0.00 0.51 0.13 83 1013.5
20260507062438 16 205 11.3 17.7 0.00 0.51 0.13 83 1013.5
20260507062336 16 212 9.7 16.1 0.00 0.51 0.13 83 1013.5
20260507062248 16 224 11.3 16.1 0.00 0.51 0.13 83 1013.5
20260507062158 16 210 12.9 16.1 0.00 0.51 0.13 83 1013.5
20260507062050 16 202 11.3 16.1 0.00 0.51 0.13 83 1013.5
20260507061934 16 191 11.3 14.5 0.00 0.51 0.13 83 1013.5
20260507061822 16 199 11.3 14.5 0.00 0.51 0.13 83 1013.5
20260507061731 16 197 12.9 17.7 0.00 0.51 0.13 83 1013.5
20260507061639 16 194 11.3 17.7 0.00 0.51 0.13 83 1013.5
20260507061529 16 194 9.7 17.7 0.00 0.51 0.13 83 1013.6
20260507061444 16 205 9.7 19.3 0.00 0.51 0.13 83 1013.6
20260507061339 16 188 9.7 19.3 0.00 0.51 0.13 83 1013.6
20260507061247 16 196 9.7 19.3 0.00 0.51 0.13 83 1013.6
20260507061120 16 214 9.7 19.3 0.00 0.51 0.13 83 1013.6
20260507061050 16 187 11.3 19.3 0.00 0.51 0.13 83 1013.6
20260507060930 16 209 11.3 19.3 0.00 0.51 0.13 83 1013.7
20260507060828 16 202 11.3 19.3 0.00 0.51 0.13 83 1013.6
20260507060716 16 215 12.9 19.3 0.00 0.51 0.13 83 1013.6
20260507060636 16 200 12.9 19.3 0.00 0.51 0.13 83 1013.6
20260507060544 16 204 12.9 17.7 0.00 0.51 0.13 83 1013.6
20260507060421 16 198 14.5 17.7 0.00 0.51 0.13 83 1013.5
20260507060316 16 190 12.9 20.9 0.00 0.51 0.13 83 1013.5
20260507060232 16 191 12.9 20.9 0.00 0.51 0.13 83 1013.5
20260507060131 16 202 12.9 20.9 0.00 0.51 0.13 84 1013.6
20260507060038 16 188 12.9 20.9 0.00 0.51 0.13 84 1013.5
20260507055951 16 176 12.9 20.9 0.00 0.51 0.13 84 1013.5
20260507055900 16 185 14.5 20.9 0.00 0.51 0.13 84 1013.5
20260507055746 16 196 14.5 20.9 0.00 0.51 0.13 84 1013.5
20260507055639 16 196 14.5 20.9 0.00 0.51 0.13 84 1013.5
20260507055531 16 192 12.9 20.9 0.00 0.51 0.13 84 1013.5
20260507055421 16 196 12.9 17.7 0.00 0.51 0.13 84 1013.5
20260507055338 16 190 12.9 17.7 0.00 0.51 0.13 84 1013.5
20260507055244 16 211 12.9 17.7 0.00 0.51 0.13 84 1013.5
20260507055152 16 205 12.9 17.7 0.00 0.51 0.13 84 1013.5
20260507055044 16 202 12.9 17.7 0.00 0.51 0.13 84 1013.5
20260507055009 16 194 12.9 16.1 0.00 0.51 0.13 84 1013.5
20260507054855 16 209 12.9 16.1 0.00 0.51 0.13 84 1013.5
20260507054727 16 208 12.9 16.1 0.00 0.51 0.13 84 1013.5
20260507054639 16 205 12.9 16.1 0.00 0.51 0.13 84 1013.5
20260507054537 16 191 12.9 16.1 0.00 0.51 0.13 84 1013.5
20260507054444 16 198 12.9 16.1 0.00 0.51 0.13 84 1013.6
20260507054321 16 201 12.9 16.1 0.00 0.51 0.13 84 1013.5
20260507054222 16 196 12.9 16.1 0.00 0.51 0.13 85 1013.6
20260507054131 16 200 12.9 14.5 0.00 0.51 0.13 85 1013.6
20260507054027 16 197 11.3 14.5 0.00 0.51 0.13 85 1013.6
20260507053920 16 205 9.7 14.5 0.00 0.51 0.13 85 1013.5
20260507053830 16 191 9.7 14.5 0.00 0.51 0.13 85 1013.5
20260507053722 16 213 9.7 14.5 0.00 0.51 0.13 85 1013.5
20260507053632 16 195 9.7 14.5 0.00 0.51 0.13 85 1013.5
20260507053525 16 191 9.7 14.5 0.00 0.51 0.13 85 1013.5
20260507053437 16 205 11.3 14.5 0.00 0.51 0.13 85 1013.5
20260507053335 16 215 11.3 14.5 0.00 0.51 0.13 85 1013.4
20260507053232 16 211 9.7 14.5 0.00 0.51 0.13 85 1013.4
20260507053141 16 186 11.3 14.5 0.00 0.51 0.13 85 1013.3
20260507053028 16 223 11.3 16.1 0.00 0.51 0.13 85 1013.3
20260507052921 16 218 11.3 16.1 0.00 0.51 0.13 85 1013.3
20260507052830 16 211 11.3 16.1 0.00 0.51 0.13 85 1013.3
20260507052721 16 204 11.3 16.1 0.00 0.51 0.13 85 1013.2
20260507052654 16 215 11.3 16.1 0.00 0.51 0.13 85 1013.2
20260507052540 16 192 12.9 16.1 0.00 0.51 0.13 85 1013.2
20260507052434 16 213 12.9 16.1 0.00 0.51 0.13 85 1013.2
20260507052329 16 200 12.9 16.1 0.00 0.51 0.13 85 1013.2
20260507052237 16 197 12.9 16.1 0.00 0.51 0.13 86 1013.2
20260507052131 16 207 12.9 16.1 0.00 0.51 0.13 86 1013.2
20260507052036 16 190 12.9 16.1 0.00 0.51 0.13 86 1013.2
20260507051935 16 221 12.9 16.1 0.00 0.51 0.13 86 1013.1
20260507051843 16 193 11.3 16.1 0.00 0.51 0.13 86 1013.1
20260507051722 16 212 11.3 16.1 0.00 0.51 0.13 86 1013.1
20260507051641 15 182 11.3 16.1 0.00 0.51 0.13 86 1013.1
20260507051525 15 190 9.7 19.3 0.00 0.51 0.13 86 1013.0
20260507051420 15 190 9.7 19.3 0.00 0.51 0.13 86 1013.0
20260507051321 15 204 9.7 19.3 0.00 0.51 0.13 86 1013.0
20260507051230 15 180 9.7 19.3 0.00 0.51 0.13 86 1013.0
20260507051128 15 187 9.7 19.3 0.00 0.51 0.13 86 1013.0
20260507051036 15 188 11.3 19.3 0.00 0.51 0.13 86 1013.0
20260507050933 15 200 11.3 19.3 0.00 0.51 0.13 86 1013.1
20260507050840 15 187 11.3 19.3 0.00 0.51 0.13 86 1013.1
20260507050735 15 178 11.3 19.3 0.00 0.51 0.13 86 1013.1
20260507050626 15 190 11.3 19.3 0.00 0.51 0.13 86 1013.1
20260507050520 15 191 11.3 19.3 0.00 0.51 0.13 86 1013.0
20260507050448 15 177 11.3 19.3 0.00 0.51 0.13 86 1013.0
20260507050323 15 198 11.3 19.3 0.00 0.51 0.13 87 1013.0
20260507050232 15 192 12.9 19.3 0.00 0.51 0.13 87 1013.0
20260507050128 15 194 12.9 19.3 0.00 0.51 0.13 87 1013.0
20260507050036 15 177 12.9 19.3 0.00 0.51 0.13 87 1012.9
20260507045936 15 198 12.9 19.3 0.00 0.71 0.13 87 1012.9
20260507045843 15 196 12.9 19.3 0.00 0.71 0.13 87 1012.9
20260507045736 15 184 12.9 19.3 0.00 0.71 0.13 87 1012.9
20260507045643 15 185 12.9 19.3 0.00 0.71 0.13 87 1012.9
20260507045559 15 200 11.3 14.5 0.00 0.71 0.13 87 1012.8
20260507045445 15 183 11.3 14.5 0.00 0.71 0.13 87 1012.9
20260507045322 15 201 9.7 14.5 0.00 0.71 0.13 87 1012.8
20260507045222 15 194 9.7 14.5 0.00 0.71 0.13 87 1012.8
20260507045131 15 205 9.7 14.5 0.00 0.71 0.13 87 1012.8
20260507045022 15 197 9.7 14.5 0.00 0.71 0.13 87 1012.8
20260507044931 15 194 8.0 14.5 0.00 0.71 0.13 87 1012.8
20260507044824 15 184 8.0 11.3 0.00 0.71 0.13 87 1012.7
20260507044756 15 192 6.4 9.7 0.00 0.71 0.13 87 1012.7
20260507044703 15 188 6.4 9.7 0.00 0.71 0.13 87 1012.7
20260507044543 15 182 4.8 11.3 0.00 0.71 0.13 87 1012.6
20260507044451 15 182 4.8 11.3 0.00 0.71 0.13 87 1012.6
20260507044325 15 180 4.8 11.3 0.00 0.71 0.13 87 1012.6
20260507044219 15 178 6.4 11.3 0.00 0.71 0.13 87 1012.6
20260507044128 15 175 4.8 11.3 0.00 0.71 0.13 87 1012.6
20260507044052 15 176 4.8 11.3 0.00 0.71 0.13 87 1012.6
20260507043927 15 175 6.4 11.3 0.00 0.71 0.13 87 1012.5
20260507043828 15 184 8.0 11.3 0.00 0.71 0.13 87 1012.5
20260507043737 15 184 8.0 12.9 0.00 0.71 0.13 87 1012.5
20260507043636 15 188 8.0 12.9 0.00 0.71 0.13 87 1012.5
20260507043527 15 190 9.7 12.9 0.00 0.71 0.13 87 1012.5
20260507043434 15 188 8.0 12.9 0.00 0.71 0.13 87 1012.6
20260507043328 15 188 8.0 12.9 0.00 0.71 0.13 87 1012.5
20260507043240 15 188 8.0 12.9 0.00 0.71 0.13 87 1012.5
20260507043208 15 186 9.7 12.9 0.00 0.71 0.13 87 1012.5
20260507043019 15 192 9.7 12.9 0.00 0.71 0.13 87 1012.6
20260507042948 15 192 9.7 12.9 0.00 0.71 0.13 87 1012.6
20260507042825 15 196 9.7 11.3 0.00 0.71 0.13 87 1012.6
20260507042756 15 190 9.7 11.3 0.00 0.71 0.13 87 1012.6
20260507042629 15 192 8.0 11.3 0.00 0.71 0.13 87 1012.6
20260507042533 15 190 9.7 11.3 0.00 0.71 0.13 87 1012.6
20260507042435 15 190 9.7 11.3 0.00 0.71 0.13 87 1012.6
20260507042343 15 206 9.7 11.3 0.00 0.71 0.13 87 1012.6
20260507042238 15 190 8.0 11.3 0.00 0.71 0.13 87 1012.6
20260507042145 15 196 8.0 11.3 0.00 0.71 0.13 87 1012.6
20260507042038 15 201 6.4 11.3 0.00 0.71 0.13 87 1012.6
20260507041945 15 184 8.0 11.3 0.00 0.71 0.13 87 1012.6
20260507041822 15 190 6.4 11.3 0.00 0.71 0.13 87 1012.6
20260507041722 15 182 6.4 9.7 0.00 0.71 0.13 87 1012.6
20260507041635 15 173 6.4 9.7 0.00 0.71 0.13 87 1012.6
20260507041541 15 178 6.4 9.7 0.00 0.71 0.13 87 1012.6
20260507041438 15 181 6.4 9.7 0.00 0.71 0.13 87 1012.6
20260507041333 15 174 6.4 9.7 0.00 0.71 0.13 87 1012.6
20260507041243 15 169 6.4 9.7 0.00 0.71 0.13 87 1012.5
20260507041122 15 173 6.4 9.7 0.00 0.71 0.13 87 1012.5
20260507041019 15 171 6.4 9.7 0.00 0.71 0.13 87 1012.5
20260507040927 15 146 6.4 9.7 0.00 0.71 0.13 87 1012.5
20260507040828 15 146 4.8 8.0 0.00 0.71 0.13 87 1012.4
20260507040737 15 140 4.8 8.0 0.00 0.71 0.13 87 1012.4
20260507040601 15 150 4.8 8.0 0.00 0.71 0.13 87 1012.4
20260507040526 15 146 6.4 8.0 0.00 0.71 0.13 87 1012.4
20260507040336 15 153 3.2 8.0 0.00 0.71 0.13 87 1012.4
20260507040246 15 147 0.0 6.4 0.00 0.71 0.13 87 1012.4
20260507040122 15 147 1.6 6.4 0.00 0.71 0.13 87 1012.4
20260507040029 15 147 1.6 6.4 0.00 0.71 0.13 87 1012.4
20260507035921 15 147 1.6 6.4 0.00 0.71 0.13 87 1012.4
20260507035833 15 147 1.6 6.4 0.00 0.71 0.13 87 1012.4
20260507035728 15 147 1.6 6.4 0.00 0.71 0.13 87 1012.3
20260507035632 15 147 1.6 9.7 0.00 0.71 0.13 87 1012.4
20260507035537 15 147 3.2 9.7 0.00 0.71 0.13 87 1012.4
20260507035432 15 145 3.2 9.7 0.00 0.71 0.13 87 1012.3
20260507035339 15 145 3.2 9.7 0.00 0.71 0.13 87 1012.4
20260507035308 15 145 1.6 9.7 0.00 0.71 0.13 86 1012.3
20260507035142 15 139 3.2 11.3 0.00 0.71 0.13 86 1012.3
20260507035048 15 139 4.8 11.3 0.00 0.71 0.13 86 1012.4
20260507034926 15 141 6.4 11.3 0.00 0.71 0.13 86 1012.4
20260507034822 15 157 6.4 11.3 0.00 0.71 0.13 86 1012.4
20260507034734 15 159 8.0 11.3 0.00 0.71 0.13 86 1012.4
20260507034631 15 147 8.0 11.3 0.00 0.71 0.13 86 1012.4
20260507034539 15 167 8.0 11.3 0.00 0.71 0.13 86 1012.4
20260507034432 15 157 8.0 11.3 0.00 0.71 0.13 86 1012.4
20260507034324 15 165 6.4 11.3 0.00 0.71 0.13 86 1012.3
20260507034240 15 158 8.0 11.3 0.00 0.71 0.13 86 1012.3
20260507034127 15 155 8.0 12.9 0.00 0.71 0.13 86 1012.3
20260507034019 15 141 9.7 12.9 0.00 0.71 0.13 86 1012.3
20260507033927 15 132 8.0 12.9 0.00 0.71 0.13 86 1012.3
20260507033841 15 151 8.0 12.9 0.00 0.71 0.13 86 1012.3
20260507033728 15 145 8.0 12.9 0.00 0.71 0.13 86 1012.3
20260507033623 15 144 6.4 12.9 0.00 0.71 0.13 86 1012.4
20260507033533 16 168 6.4 12.9 0.00 0.71 0.13 86 1012.4
20260507033450 16 165 6.4 12.9 0.00 0.71 0.13 86 1012.3
20260507033358 16 169 8.0 12.9 0.00 0.71 0.13 86 1012.3
20260507033244 16 169 6.4 12.9 0.00 0.71 0.13 85 1012.4
20260507033120 16 159 8.0 12.9 0.00 0.71 0.13 85 1012.4
20260507033031 16 167 9.7 12.9 0.00 0.71 0.13 85 1012.4
20260507032939 16 153 8.0 12.9 0.00 0.71 0.13 85 1012.5
20260507032838 16 162 8.0 9.7 0.00 0.71 0.13 85 1012.4
20260507032745 16 163 6.4 9.7 0.00 0.71 0.13 85 1012.4
20260507032619 16 161 6.4 9.7 0.00 0.71 0.13 85 1012.4
20260507032529 16 157 6.4 8.0 0.00 0.71 0.13 85 1012.4
20260507032425 16 156 4.8 8.0 0.00 0.71 0.13 85 1012.4
20260507032319 16 138 1.6 8.0 0.00 0.71 0.13 85 1012.4
20260507032228 16 136 1.6 8.0 0.00 0.71 0.13 85 1012.4
20260507032126 16 136 3.2 8.0 0.00 0.71 0.13 85 1012.4
20260507032033 16 136 3.2 8.0 0.00 0.71 0.13 85 1012.5
20260507031931 16 136 4.8 8.0 0.00 0.71 0.13 85 1012.4
20260507031839 16 131 4.8 8.0 0.00 0.71 0.13 85 1012.4
20260507031740 16 130 4.8 8.0 0.00 0.71 0.13 85 1012.4
20260507031649 16 126 3.2 8.0 0.00 0.71 0.13 85 1012.4
20260507031527 16 88 1.6 3.2 0.00 0.71 0.13 85 1012.4
20260507031421 16 88 0.0 3.2 0.00 0.71 0.13 85 1012.4
20260507031330 16 88 0.0 3.2 0.00 0.71 0.13 85 1012.4
20260507031227 16 88 0.0 6.4 0.00 0.71 0.13 85 1012.5
20260507031135 16 88 0.0 6.4 0.00 0.71 0.13 85 1012.4
20260507031026 16 88 1.6 6.4 0.00 0.71 0.13 85 1012.4
20260507030919 16 88 1.6 6.4 0.00 0.71 0.13 85 1012.4
20260507030852 16 88 1.6 6.4 0.00 0.71 0.13 85 1012.4
20260507030739 16 88 1.6 6.4 0.00 0.71 0.13 85 1012.4
20260507030637 16 88 1.6 6.4 0.00 0.71 0.13 85 1012.4
20260507030604 16 88 3.2 6.4 0.00 0.71 0.13 85 1012.4
20260507030507 16 88 3.2 6.4 0.00 0.71 0.13 85 1012.4
20260507030319 16 71 1.6 8.0 0.00 0.71 0.13 85 1012.3
20260507030249 16 46 1.6 8.0 0.00 0.71 0.13 85 1012.3
20260507030121 16 46 3.2 8.0 0.00 0.71 0.13 85 1012.2
20260507030019 16 46 3.2 8.0 0.00 0.71 0.13 85 1012.2
20260507025949 16 46 3.2 8.0 0.00 0.71 0.13 85 1012.2
20260507025835 16 45 3.2 8.0 0.00 0.71 0.13 85 1012.3
20260507025733 16 38 4.8 8.0 0.00 0.71 0.13 85 1012.3
20260507025630 16 34 4.8 8.0 0.00 0.71 0.13 84 1012.3
20260507025538 16 32 4.8 8.0 0.00 0.71 0.13 85 1012.3
20260507025419 16 50 3.2 8.0 0.00 0.71 0.13 84 1012.3
20260507025349 16 38 3.2 8.0 0.00 0.71 0.13 84 1012.3
20260507025241 16 23 3.2 8.0 0.00 0.71 0.13 84 1012.4
20260507025129 16 81 1.6 6.4 0.00 0.71 0.13 84 1012.4
20260507025029 16 103 1.6 3.2 0.00 0.71 0.13 84 1012.4
20260507024930 16 103 1.6 3.2 0.00 0.71 0.13 84 1012.4
20260507024836 16 148 1.6 3.2 0.00 0.71 0.13 84 1012.3
20260507024743 16 149 1.6 3.2 0.00 0.71 0.13 84 1012.3
20260507024625 16 152 0.0 3.2 0.00 0.71 0.13 84 1012.3
20260507024536 16 152 0.0 3.2 0.00 0.71 0.13 84 1012.3
20260507024430 16 152 1.6 3.2 0.00 0.71 0.13 84 1012.3
20260507024323 16 152 1.6 3.2 0.00 0.71 0.13 84 1012.3
20260507024229 16 152 1.6 3.2 0.00 0.71 0.13 84 1012.3
20260507024123 16 152 1.6 3.2 0.10 0.71 0.13 84 1012.3
20260507024033 16 152 1.6 3.2 0.10 0.71 0.13 84 1012.3
20260507023927 16 152 0.0 1.6 0.10 0.71 0.13 84 1012.3
20260507023835 16 152 0.0 1.6 0.10 0.71 0.13 84 1012.3
20260507023751 16 152 0.0 1.6 0.10 0.71 0.13 84 1012.3
20260507023637 16 152 0.0 3.2 0.10 0.71 0.13 84 1012.2
20260507023532 16 152 0.0 3.2 0.10 0.71 0.13 84 1012.3
20260507023440 16 152 0.0 3.2 0.10 0.71 0.13 84 1012.2
20260507023318 16 152 0.0 3.2 0.10 0.71 0.13 84 1012.2
20260507023246 16 152 0.0 3.2 0.10 0.71 0.13 84 1012.2
20260507023134 16 152 0.0 3.2 0.10 0.71 0.13 84 1012.2
20260507023049 16 152 1.6 3.2 0.10 0.71 0.13 84 1012.2
20260507022935 16 152 1.6 3.2 0.10 0.71 0.13 84 1012.2
20260507022829 16 152 1.6 3.2 0.10 0.71 0.13 84 1012.2
20260507022740 16 152 1.6 3.2 0.10 0.71 0.13 83 1012.2
20260507022654 16 152 1.6 3.2 0.10 0.71 0.13 83 1012.2
20260507022541 16 152 1.6 3.2 0.20 0.71 0.13 83 1012.2
20260507022453 16 152 1.6 3.2 0.20 0.71 0.13 83 1012.2
20260507022326 16 152 1.6 3.2 0.20 0.71 0.13 83 1012.2
20260507022257 16 152 1.6 3.2 0.30 0.71 0.13 83 1012.2
20260507022206 16 152 1.6 3.2 0.30 0.71 0.13 83 1012.1
20260507022043 16 152 1.6 3.2 0.30 0.71 0.13 83 1012.0
20260507021931 16 152 1.6 3.2 0.30 0.71 0.13 83 1012.0
20260507021848 16 152 1.6 6.4 0.41 0.71 0.13 83 1012.1
20260507021734 16 152 1.6 6.4 0.41 0.71 0.13 83 1012.0
20260507021632 16 152 0.0 6.4 0.41 0.71 0.13 83 1012.1
20260507021537 16 153 0.0 6.4 0.41 0.71 0.13 83 1012.1
20260507021432 16 153 0.0 6.4 0.41 0.71 0.13 83 1012.1
20260507021332 16 153 0.0 6.4 0.41 0.71 0.13 83 1012.1
20260507021220 16 152 1.6 6.4 0.41 0.71 0.13 83 1012.2
20260507021138 16 152 1.6 6.4 0.41 0.71 0.13 83 1012.2
20260507021043 16 152 3.2 6.4 0.41 0.71 0.13 83 1012.2
20260507020937 16 153 3.2 4.8 0.51 0.71 0.13 83 1012.2
20260507020844 16 153 3.2 6.4 0.51 0.71 0.13 83 1012.1
20260507020723 16 159 1.6 6.4 0.51 0.71 0.13 83 1012.2
20260507020621 16 159 1.6 3.2 0.51 0.71 0.13 83 1012.2
20260507020549 16 159 1.6 6.4 0.51 0.71 0.13 82 1012.2
20260507020438 16 159 1.6 6.4 0.51 0.71 0.13 82 1012.2
20260507020319 16 159 1.6 6.4 0.51 0.71 0.13 82 1012.2
20260507020217 16 163 0.0 6.4 0.51 0.71 0.13 82 1012.3
20260507020127 16 163 0.0 6.4 0.51 0.71 0.13 82 1012.3
20260507020021 16 163 1.6 6.4 0.51 0.71 0.13 82 1012.3
20260507015919 16 163 1.6 6.4 0.51 0.71 0.13 82 1012.3
20260507015827 16 163 3.2 4.8 0.51 0.71 0.13 82 1012.3
20260507015754 16 163 1.6 9.7 0.51 0.71 0.13 82 1012.3
20260507015713 16 163 1.6 9.7 0.51 0.71 0.13 82 1012.4
20260507015622 17 163 0.0 9.7 0.51 0.71 0.13 82 1012.3
20260507015439 17 163 1.6 9.7 0.51 0.71 0.13 82 1012.3
20260507015335 17 163 1.6 9.7 0.51 0.71 0.13 82 1012.3
20260507015230 17 164 1.6 9.7 0.51 0.71 0.13 82 1012.3
20260507015137 17 164 1.6 9.7 0.51 0.71 0.13 82 1012.3
20260507015027 17 164 3.2 9.7 0.51 0.71 0.13 82 1012.3
20260507014954 17 164 3.2 9.7 0.51 0.71 0.13 82 1012.3
20260507014845 17 165 3.2 8.0 0.51 0.71 0.13 81 1012.3
20260507014739 17 165 3.2 8.0 0.51 0.71 0.13 81 1012.4
20260507014647 17 165 4.8 8.0 0.51 0.71 0.13 81 1012.4
20260507014519 17 161 3.2 8.0 0.51 0.71 0.13 81 1012.3
20260507014448 17 161 3.2 8.0 0.51 0.71 0.13 81 1012.3
20260507014322 17 178 1.6 6.4 0.51 0.71 0.13 81 1012.3
20260507014250 17 186 1.6 6.4 0.51 0.71 0.13 81 1012.3
20260507014156 17 187 1.6 6.4 0.51 0.71 0.13 81 1012.2
20260507014031 17 187 1.6 6.4 0.41 0.61 0.10 81 1012.2
20260507013940 17 187 1.6 6.4 0.41 0.61 0.10 81 1012.2
20260507013836 17 187 0.0 8.0 0.41 0.61 0.10 80 1012.1
20260507013734 17 187 0.0 8.0 0.41 0.61 0.10 80 1012.1
20260507013701 17 187 1.6 8.0 0.41 0.61 0.10 80 1012.1
20260507013544 17 187 3.2 8.0 0.41 0.61 0.10 80 1012.1
20260507013419 17 187 3.2 8.0 0.41 0.61 0.10 80 1012.1
20260507013329 17 188 3.2 8.0 0.41 0.61 0.10 80 1012.1
20260507013236 17 190 3.2 8.0 0.41 0.61 0.10 80 1012.2
20260507013130 17 191 4.8 8.0 0.41 0.61 0.10 80 1012.2
20260507013058 17 192 6.4 8.0 0.41 0.61 0.10 79 1012.2
20260507013001 17 204 4.8 8.0 0.41 0.61 0.10 79 1012.3
20260507012907 17 204 3.2 8.0 0.41 0.61 0.10 79 1012.4
20260507012721 17 190 1.6 6.4 0.41 0.61 0.10 79 1012.4
20260507012652 17 190 1.6 6.4 0.41 0.61 0.10 79 1012.4
20260507012527 17 190 3.2 6.4 0.30 0.51 0.08 79 1012.3
20260507012425 17 190 3.2 6.4 0.30 0.51 0.08 79 1012.3
20260507012334 17 198 3.2 8.0 0.20 0.41 0.05 79 1012.3
20260507012241 17 210 3.2 8.0 0.20 0.41 0.05 78 1012.3
20260507012158 17 213 1.6 9.7 0.20 0.41 0.05 78 1012.4
20260507012045 17 238 1.6 11.3 0.20 0.41 0.05 78 1012.3
20260507012010 17 252 1.6 11.3 0.20 0.41 0.05 78 1012.3
20260507011827 17 252 1.6 11.3 0.10 0.30 0.03 78 1012.3
20260507011802 17 252 3.2 12.9 0.10 0.30 0.03 78 1012.3
20260507011653 17 252 3.2 12.9 0.10 0.30 0.03 78 1012.3
20260507011540 17 253 4.8 14.5 0.10 0.30 0.03 78 1012.3
20260507011453 17 254 8.0 14.5 0.10 0.30 0.03 77 1012.2
20260507011319 17 252 9.7 16.1 0.10 0.30 0.03 77 1012.2
20260507011233 17 244 8.0 16.1 0.10 0.30 0.03 77 1012.2
20260507011141 17 254 9.7 16.1 0.10 0.30 0.03 77 1012.2
20260507011032 17 229 9.7 17.7 0.00 0.20 0.00 77 1012.1
20260507010943 17 215 11.3 17.7 0.00 0.20 0.00 77 1012.1
20260507010837 17 205 11.3 19.3 0.00 0.20 0.00 77 1012.1
20260507010734 17 208 11.3 19.3 0.00 0.20 0.00 77 1012.1
20260507010622 17 214 11.3 19.3 0.00 0.20 0.00 76 1012.0
20260507010535 17 226 11.3 19.3 0.00 0.20 0.00 76 1012.0
20260507010441 17 223 11.3 19.3 0.00 0.20 0.00 76 1012.1
20260507010318 17 204 12.9 19.3 0.00 0.20 0.00 76 1012.1
20260507010247 17 209 12.9 19.3 0.00 0.20 0.00 76 1012.1
20260507010123 17 217 14.5 19.3 0.00 0.20 0.00 76 1012.1
20260507010039 17 190 14.5 19.3 0.00 0.20 0.00 76 1012.1
20260507005946 17 211 14.5 19.3 0.00 0.30 0.00 76 1012.1
20260507005820 18 207 16.1 19.3 0.00 0.30 0.00 76 1012.1
20260507005728 18 208 14.5 19.3 0.00 0.30 0.00 76 1012.1
20260507005627 18 219 12.9 19.3 0.00 0.30 0.00 76 1012.2
20260507005530 18 198 12.9 19.3 0.00 0.30 0.00 75 1012.2
20260507005457 18 183 14.5 19.3 0.00 0.30 0.00 76 1012.1
20260507005334 18 207 12.9 19.3 0.00 0.30 0.00 75 1012.1
20260507005241 18 227 11.3 19.3 0.00 0.30 0.00 75 1012.1
20260507005159 18 196 12.9 19.3 0.00 0.30 0.00 75 1012.1
20260507005046 18 190 12.9 19.3 0.00 0.30 0.00 75 1012.1
20260507005011 18 185 14.5 19.3 0.00 0.30 0.00 75 1012.1
20260507004820 18 200 16.1 19.3 0.00 0.30 0.00 75 1012.1
20260507004727 18 182 14.5 19.3 0.00 0.30 0.00 75 1012.1
20260507004621 18 188 14.5 17.7 0.00 0.30 0.00 75 1012.1
20260507004527 18 178 12.9 17.7 0.00 0.30 0.00 75 1012.1
20260507004440 18 203 12.9 17.7 0.00 0.30 0.00 75 1012.1
20260507004328 18 198 12.9 17.7 0.00 0.30 0.00 75 1012.1
20260507004239 18 186 11.3 16.1 0.00 0.30 0.00 75 1012.1
20260507004133 18 186 11.3 16.1 0.00 0.30 0.00 75 1012.1
20260507004021 18 196 12.9 16.1 0.00 0.30 0.00 75 1012.1
20260507003917 18 190 11.3 14.5 0.00 0.30 0.00 75 1012.1
20260507003850 18 182 9.7 14.5 0.00 0.30 0.00 75 1012.1
20260507003757 18 194 8.0 14.5 0.00 0.30 0.00 75 1012.0
20260507003629 18 205 8.0 14.5 0.00 0.30 0.00 75 1012.0
20260507003523 18 194 11.3 14.5 0.00 0.30 0.00 75 1012.1
20260507003432 18 208 9.7 14.5 0.00 0.30 0.00 75 1012.1
20260507003338 18 183 11.3 14.5 0.00 0.30 0.00 75 1012.1
20260507003219 18 186 9.7 17.7 0.00 0.30 0.00 75 1012.1
20260507003134 18 207 9.7 17.7 0.00 0.30 0.00 75 1012.1
20260507003039 18 183 11.3 17.7 0.00 0.30 0.00 75 1012.1
20260507002947 18 197 11.3 17.7 0.00 0.30 0.00 75 1012.1
20260507002838 18 204 9.7 17.7 0.00 0.30 0.00 75 1012.1
20260507002733 18 201 11.3 17.7 0.00 0.30 0.00 75 1012.1
20260507002639 18 196 12.9 17.7 0.00 0.30 0.00 75 1012.0
20260507002547 18 213 12.9 17.7 0.00 0.30 0.00 74 1012.0
20260507002509 18 192 12.9 17.7 0.00 0.30 0.00 74 1012.1
20260507002440 18 190 12.9 17.7 0.00 0.30 0.00 74 1012.1
20260507002236 18 193 11.3 19.3 0.00 0.30 0.00 74 1012.1
20260507002134 18 186 11.3 19.3 0.00 0.30 0.00 74 1012.0
20260507002038 18 189 9.7 19.3 0.00 0.30 0.00 74 1012.0
20260507001932 18 198 9.7 19.3 0.00 0.30 0.00 74 1012.0
20260507001839 18 195 9.7 19.3 0.00 0.30 0.00 74 1012.0
20260507001737 18 207 9.7 19.3 0.00 0.30 0.00 74 1012.0
20260507001627 18 173 12.9 19.3 0.00 0.30 0.00 74 1012.0
20260507001519 18 191 12.9 19.3 0.00 0.30 0.00 74 1012.0
20260507001447 18 184 14.5 19.3 0.00 0.30 0.00 74 1012.0
20260507001340 18 195 12.9 22.5 0.00 0.30 0.00 74 1012.0
20260507001252 18 194 11.3 22.5 0.00 0.30 0.00 74 1012.0
20260507001127 18 177 11.3 22.5 0.00 0.30 0.00 74 1012.0
20260507001035 18 191 11.3 22.5 0.00 0.30 0.00 74 1012.1
20260507000937 18 186 12.9 22.5 0.00 0.30 0.00 74 1012.1
20260507000845 18 179 14.5 22.5 0.00 0.30 0.00 74 1012.1
20260507000721 18 198 14.5 22.5 0.00 0.30 0.00 74 1012.0
20260507000649 18 199 16.1 22.5 0.00 0.30 0.00 74 1012.0
20260507000539 18 199 17.7 22.5 0.00 0.30 0.00 74 1012.1
20260507000435 18 186 16.1 22.5 0.00 0.30 0.00 74 1012.1
20260507000343 18 183 16.1 22.5 0.00 0.30 0.00 74 1012.2
20260507000239 18 216 16.1 22.5 0.00 0.30 0.00 74 1012.3
20260507000124 18 196 17.7 24.1 0.00 0.30 0.00 74 1012.2
20260507000025 18 203 16.1 24.1 0.00 0.30 0.00 74 1012.2
20260506235921 18 192 16.1 24.1 0.00 0.30 0.00 74 1012.2
20260506235832 18 181 16.1 24.1 0.00 0.30 0.00 74 1012.2
20260506235800 18 180 14.5 24.1 0.00 0.30 0.00 74 1012.3
20260506235621 18 185 16.1 24.1 0.00 0.30 0.00 74 1012.3
20260506235518 18 198 16.1 24.1 0.00 0.30 0.00 74 1012.3
20260506235430 18 202 16.1 24.1 0.00 0.30 0.00 74 1012.3
20260506235325 18 196 14.5 24.1 0.00 0.30 0.00 73 1012.3
20260506235256 18 200 14.5 20.9 0.00 0.30 0.00 73 1012.5
20260506235129 18 192 17.7 20.9 0.00 0.30 0.00 73 1012.4
20260506235054 18 205 16.1 20.9 0.00 0.30 0.00 73 1012.4
20260506234929 18 209 12.9 20.9 0.00 0.30 0.00 73 1012.4
20260506234821 18 201 14.5 19.3 0.00 0.30 0.00 73 1012.4
20260506234739 18 223 14.5 19.3 0.00 0.30 0.00 73 1012.4
20260506234709 18 197 14.5 17.7 0.00 0.30 0.00 73 1012.3
20260506234639 18 190 12.9 17.7 0.00 0.30 0.00 73 1012.3
20260506234424 18 191 11.3 17.7 0.00 0.30 0.00 73 1012.3
20260506234355 18 215 11.3 17.7 0.00 0.30 0.00 73 1012.3
20260506234227 18 196 11.3 17.7 0.00 0.30 0.00 73 1012.3
20260506234155 18 193 11.3 17.7 0.00 0.30 0.00 73 1012.3
20260506234043 18 178 11.3 17.7 0.00 0.30 0.00 73 1012.2
20260506233939 18 190 11.3 17.7 0.00 0.30 0.00 73 1012.3
20260506233846 18 188 11.3 14.5 0.00 0.30 0.00 73 1012.3
20260506233722 18 180 11.3 14.5 0.00 0.30 0.00 73 1012.3
20260506233652 18 178 9.7 14.5 0.00 0.30 0.00 73 1012.3
20260506233522 18 184 8.0 11.3 0.00 0.30 0.00 72 1012.4
20260506233450 18 175 8.0 11.3 0.00 0.30 0.00 72 1012.4
20260506233326 18 190 6.4 12.9 0.00 0.30 0.00 72 1012.4
20260506233219 18 177 6.4 12.9 0.00 0.30 0.00 72 1012.3
20260506233147 18 177 8.0 12.9 0.00 0.30 0.00 72 1012.3
20260506233022 18 179 6.4 12.9 0.00 0.30 0.00 72 1012.4
20260506232931 18 181 6.4 12.9 0.00 0.30 0.00 72 1012.4
20260506232849 18 197 6.4 16.1 0.00 0.30 0.00 72 1012.4